Time,TemperatureF,DewpointF,PressureIn,WindDirection,WindDirectionDegrees,WindSpeedMPH,WindSpeedGustMPH,Humidity,HourlyPrecipIn,Conditions,Clouds,dailyrainin,SoftwareType,DateUTC
2013-02-18 00:00:00,13.1,-14.6,29.78,North,353,6.7,8.7,27,0.00,,---,0.00,VWS V14.00,2013-02-18 05:00:00,
2013-02-18 00:05:00,13.3,-14.4,29.78,North,353,6.0,9.4,27,0.00,,---,0.00,VWS V14.00,2013-02-18 05:05:00,
2013-02-18 00:10:00,13.3,-14.4,29.78,North,353,6.0,8.7,27,0.00,,---,0.00,VWS V14.00,2013-02-18 05:10:00,
2013-02-18 00:15:00,13.3,-14.4,29.78,North,353,4.7,9.4,27,0.00,,---,0.00,VWS V14.00,2013-02-18 05:15:00,
2013-02-18 00:16:00,13.3,-14.4,29.78,North,353,8.1,9.4,27,0.00,,---,0.00,VWS V14.00,2013-02-18 05:16:00,
2013-02-18 00:20:00,13.3,-14.4,29.78,North,353,6.7,6.7,27,0.00,,---,0.00,VWS V14.00,2013-02-18 05:20:00,
2013-02-18 00:21:00,13.3,-14.4,29.78,North,353,8.1,8.1,27,0.00,,---,0.00,VWS V14.00,2013-02-18 05:21:00,
2013-02-18 00:25:00,13.3,-14.4,29.78,North,353,8.7,8.7,27,0.00,,---,0.00,VWS V14.00,2013-02-18 05:25:00,
2013-02-18 00:26:00,13.3,-14.4,29.78,North,353,9.4,9.4,27,0.00,,---,0.00,VWS V14.00,2013-02-18 05:26:00,
2013-02-18 00:30:00,13.3,-14.4,29.78,North,353,8.1,9.4,27,0.00,,---,0.00,VWS V14.00,2013-02-18 05:30:00,
2013-02-18 00:31:00,13.3,-14.4,29.78,North,353,6.0,6.0,27,0.00,,---,0.00,VWS V14.00,2013-02-18 05:31:00,
2013-02-18 00:35:00,13.3,-14.4,29.78,North,353,9.4,10.1,27,0.00,,---,0.00,VWS V14.00,2013-02-18 05:35:00,
2013-02-18 00:36:00,13.3,-14.4,29.78,North,353,8.1,8.1,27,0.00,,---,0.00,VWS V14.00,2013-02-18 05:36:00,
2013-02-18 00:40:00,13.3,-14.4,29.78,North,353,6.0,8.1,27,0.00,,---,0.00,VWS V14.00,2013-02-18 05:40:00,
2013-02-18 00:41:00,13.3,-14.4,29.78,North,353,8.7,8.7,27,0.00,,---,0.00,VWS V14.00,2013-02-18 05:41:00,
2013-02-18 00:45:00,13.3,-14.4,29.78,North,353,8.1,8.1,27,0.00,,---,0.00,VWS V14.00,2013-02-18 05:45:00,
2013-02-18 00:46:00,13.3,-14.4,29.78,North,353,7.4,10.7,27,0.00,,---,0.00,VWS V14.00,2013-02-18 05:46:00,
2013-02-18 00:50:00,13.3,-14.4,29.78,North,353,9.4,9.4,27,0.00,,---,0.00,VWS V14.00,2013-02-18 05:50:00,
2013-02-18 00:51:00,13.3,-14.4,29.78,North,353,8.7,9.4,27,0.00,,---,0.00,VWS V14.00,2013-02-18 05:51:00,
2013-02-18 00:55:00,13.3,-14.4,29.78,North,353,9.4,9.4,27,0.00,,---,0.00,VWS V14.00,2013-02-18 05:55:00,
2013-02-18 00:56:00,13.3,-14.4,29.78,North,353,9.4,9.4,27,0.00,,---,0.00,VWS V14.00,2013-02-18 05:56:00,
2013-02-18 01:00:00,13.5,-14.3,29.78,North,353,8.1,8.1,27,0.00,,---,0.00,VWS V14.00,2013-02-18 06:00:00,
2013-02-18 01:01:00,13.5,-14.3,29.78,North,353,8.1,8.1,27,0.00,,---,0.00,VWS V14.00,2013-02-18 06:01:00,
2013-02-18 01:05:00,13.5,-14.3,29.78,North,353,9.4,9.4,27,0.00,,---,0.00,VWS V14.00,2013-02-18 06:05:00,
2013-02-18 01:06:00,13.5,-14.3,29.78,North,353,8.7,9.4,27,0.00,,---,0.00,VWS V14.00,2013-02-18 06:06:00,
2013-02-18 01:07:00,13.5,-14.3,29.78,North,353,6.0,8.1,27,0.00,,---,0.00,VWS V14.00,2013-02-18 06:07:00,
2013-02-18 01:10:00,13.5,-14.3,29.78,North,353,8.7,8.7,27,0.00,,---,0.00,VWS V14.00,2013-02-18 06:10:00,
2013-02-18 01:11:00,13.5,-14.3,29.78,North,353,8.7,8.7,27,0.00,,---,0.00,VWS V14.00,2013-02-18 06:11:00,
2013-02-18 01:12:00,13.5,-14.3,29.78,North,353,13.1,13.1,27,0.00,,---,0.00,VWS V14.00,2013-02-18 06:12:00,
2013-02-18 01:16:00,13.5,-14.3,29.78,North,353,8.1,8.7,27,0.00,,---,0.00,VWS V14.00,2013-02-18 06:16:00,
2013-02-18 01:17:00,13.5,-14.3,29.78,North,353,8.1,11.4,27,0.00,,---,0.00,VWS V14.00,2013-02-18 06:17:00,
2013-02-18 01:21:00,13.6,-14.1,29.75,North,353,12.1,12.1,27,0.00,,---,0.00,VWS V14.00,2013-02-18 06:21:00,
2013-02-18 01:22:00,13.6,-14.1,29.75,North,353,8.1,8.7,27,0.00,,---,0.00,VWS V14.00,2013-02-18 06:22:00,
2013-02-18 01:26:00,13.6,-14.1,29.75,North,353,5.4,8.7,27,0.00,,---,0.00,VWS V14.00,2013-02-18 06:26:00,
2013-02-18 01:27:00,13.6,-14.1,29.75,North,353,8.7,8.7,27,0.00,,---,0.00,VWS V14.00,2013-02-18 06:27:00,
2013-02-18 01:31:00,13.8,-14.0,29.75,North,353,8.7,8.7,27,0.00,,---,0.00,VWS V14.00,2013-02-18 06:31:00,
2013-02-18 01:33:00,13.8,-14.0,29.75,North,353,7.4,11.4,27,0.00,,---,0.00,VWS V14.00,2013-02-18 06:33:00,
2013-02-18 01:36:00,14.0,-13.8,29.75,North,353,6.0,8.1,27,0.00,,---,0.00,VWS V14.00,2013-02-18 06:36:00,
2013-02-18 01:38:00,14.0,-13.8,29.75,North,353,9.4,9.4,27,0.00,,---,0.00,VWS V14.00,2013-02-18 06:38:00,
2013-02-18 01:41:00,14.2,-14.4,29.75,North,353,8.1,8.1,26,0.00,,---,0.00,VWS V14.00,2013-02-18 06:41:00,
2013-02-18 01:43:00,14.2,-14.4,29.75,North,353,7.4,11.4,26,0.00,,---,0.00,VWS V14.00,2013-02-18 06:43:00,
2013-02-18 01:46:00,14.2,-14.4,29.75,North,353,10.7,10.7,26,0.00,,---,0.00,VWS V14.00,2013-02-18 06:46:00,
2013-02-18 01:47:00,14.4,-14.2,29.75,North,353,8.1,8.1,26,0.00,,---,0.00,VWS V14.00,2013-02-18 06:47:00,
2013-02-18 01:48:00,14.4,-14.2,29.75,North,353,6.0,8.1,26,0.00,,---,0.00,VWS V14.00,2013-02-18 06:48:00,
2013-02-18 01:51:00,14.4,-14.2,29.75,North,353,7.4,8.1,26,0.00,,---,0.00,VWS V14.00,2013-02-18 06:51:00,
2013-02-18 01:52:00,14.4,-14.2,29.75,North,353,4.7,12.1,26,0.00,,---,0.00,VWS V14.00,2013-02-18 06:52:00,
2013-02-18 01:53:00,14.4,-14.2,29.75,North,353,8.1,8.1,26,0.00,,---,0.00,VWS V14.00,2013-02-18 06:53:00,
2013-02-18 01:56:00,14.5,-14.1,29.75,North,353,9.4,9.4,26,0.00,,---,0.00,VWS V14.00,2013-02-18 06:56:00,
2013-02-18 01:57:00,14.5,-14.1,29.75,North,353,8.1,9.4,26,0.00,,---,0.00,VWS V14.00,2013-02-18 06:57:00,
2013-02-18 01:58:00,14.5,-14.1,29.75,North,353,7.4,7.4,26,0.00,,---,0.00,VWS V14.00,2013-02-18 06:58:00,
2013-02-18 02:01:00,14.9,-13.8,29.75,North,353,5.4,8.1,26,0.00,,---,0.00,VWS V14.00,2013-02-18 07:01:00,
2013-02-18 02:02:00,14.9,-13.8,29.75,North,353,11.4,11.4,26,0.00,,---,0.00,VWS V14.00,2013-02-18 07:02:00,
2013-02-18 02:03:00,14.9,-13.8,29.75,North,353,7.4,7.4,26,0.00,,---,0.00,VWS V14.00,2013-02-18 07:03:00,
2013-02-18 02:06:00,14.9,-13.8,29.75,North,353,5.4,8.7,26,0.00,,---,0.00,VWS V14.00,2013-02-18 07:06:00,
2013-02-18 02:07:00,14.9,-13.8,29.75,North,353,8.1,8.1,26,0.00,,---,0.00,VWS V14.00,2013-02-18 07:07:00,
2013-02-18 02:08:00,15.1,-13.6,29.75,North,353,7.4,9.4,26,0.00,,---,0.00,VWS V14.00,2013-02-18 07:08:00,
2013-02-18 02:11:00,15.1,-13.6,29.75,North,353,8.7,12.4,26,0.00,,---,0.00,VWS V14.00,2013-02-18 07:11:00,
2013-02-18 02:12:00,15.1,-13.6,29.75,North,353,9.4,10.1,26,0.00,,---,0.00,VWS V14.00,2013-02-18 07:12:00,
2013-02-18 02:13:00,15.3,-13.5,29.75,North,353,8.7,8.7,26,0.00,,---,0.00,VWS V14.00,2013-02-18 07:13:00,
2013-02-18 02:16:00,15.3,-13.5,29.75,North,353,9.4,11.4,26,0.00,,---,0.00,VWS V14.00,2013-02-18 07:16:00,
2013-02-18 02:17:00,15.3,-13.5,29.75,North,353,9.4,9.4,26,0.00,,---,0.00,VWS V14.00,2013-02-18 07:17:00,
2013-02-18 02:18:00,15.3,-13.5,29.75,North,353,8.1,10.1,26,0.00,,---,0.00,VWS V14.00,2013-02-18 07:18:00,
2013-02-18 02:22:00,15.3,-13.5,29.75,North,353,8.1,8.7,26,0.00,,---,0.00,VWS V14.00,2013-02-18 07:22:00,
2013-02-18 02:23:00,15.3,-13.5,29.75,North,353,8.1,9.4,26,0.00,,---,0.00,VWS V14.00,2013-02-18 07:23:00,
2013-02-18 02:27:00,15.4,-13.3,29.75,North,353,8.7,9.4,26,0.00,,---,0.00,VWS V14.00,2013-02-18 07:27:00,
2013-02-18 02:28:00,15.4,-13.3,29.75,North,353,10.1,10.1,26,0.00,,---,0.00,VWS V14.00,2013-02-18 07:28:00,
2013-02-18 02:32:00,15.4,-13.3,29.75,North,353,6.0,11.4,26,0.00,,---,0.00,VWS V14.00,2013-02-18 07:32:00,
2013-02-18 02:33:00,15.6,-13.1,29.75,North,353,8.7,10.7,26,0.00,,---,0.00,VWS V14.00,2013-02-18 07:33:00,
2013-02-18 02:37:00,15.8,-13.0,29.72,North,353,6.0,13.1,26,0.00,,---,0.00,VWS V14.00,2013-02-18 07:37:00,
2013-02-18 02:38:00,15.8,-13.0,29.72,North,353,8.1,8.7,26,0.00,,---,0.00,VWS V14.00,2013-02-18 07:38:00,
2013-02-18 02:39:00,15.8,-13.0,29.72,North,353,8.1,8.7,26,0.00,,---,0.00,VWS V14.00,2013-02-18 07:39:00,
2013-02-18 02:42:00,16.0,-12.8,29.72,North,353,8.1,8.1,26,0.00,,---,0.00,VWS V14.00,2013-02-18 07:42:00,
2013-02-18 02:44:00,16.0,-12.8,29.72,North,353,8.7,9.4,26,0.00,,---,0.00,VWS V14.00,2013-02-18 07:44:00,
2013-02-18 02:47:00,16.0,-12.8,29.72,North,353,9.4,9.4,26,0.00,,---,0.00,VWS V14.00,2013-02-18 07:47:00,
2013-02-18 02:49:00,16.2,-12.7,29.72,North,353,8.7,8.7,26,0.00,,---,0.00,VWS V14.00,2013-02-18 07:49:00,
2013-02-18 02:52:00,16.2,-12.7,29.72,North,353,12.1,12.1,26,0.00,,---,0.00,VWS V14.00,2013-02-18 07:52:00,
2013-02-18 02:53:00,16.2,-12.7,29.72,North,353,9.4,12.1,26,0.00,,---,0.00,VWS V14.00,2013-02-18 07:53:00,
2013-02-18 02:54:00,16.3,-12.5,29.72,North,353,8.1,12.4,26,0.00,,---,0.00,VWS V14.00,2013-02-18 07:54:00,
2013-02-18 02:57:00,16.5,-12.4,29.72,North,353,12.4,12.4,26,0.00,,---,0.00,VWS V14.00,2013-02-18 07:57:00,
2013-02-18 02:58:00,16.5,-12.4,29.72,North,353,12.1,12.4,26,0.00,,---,0.00,VWS V14.00,2013-02-18 07:58:00,
2013-02-18 02:59:00,16.5,-12.4,29.72,North,353,8.1,9.4,26,0.00,,---,0.00,VWS V14.00,2013-02-18 07:59:00,
2013-02-18 03:02:00,16.7,-12.2,29.72,North,353,8.1,8.1,26,0.00,,---,0.00,VWS V14.00,2013-02-18 08:02:00,
2013-02-18 03:03:00,16.9,-12.1,29.72,North,353,8.7,8.7,26,0.00,,---,0.00,VWS V14.00,2013-02-18 08:03:00,
2013-02-18 03:04:00,16.9,-12.1,29.72,North,353,7.4,7.4,26,0.00,,---,0.00,VWS V14.00,2013-02-18 08:04:00,
2013-02-18 03:07:00,16.9,-12.1,29.72,North,353,6.0,10.1,26,0.00,,---,0.00,VWS V14.00,2013-02-18 08:07:00,
2013-02-18 03:08:00,16.9,-12.1,29.72,North,353,10.1,10.1,26,0.00,,---,0.00,VWS V14.00,2013-02-18 08:08:00,
2013-02-18 03:09:00,16.9,-12.1,29.72,North,353,11.4,11.4,26,0.00,,---,0.00,VWS V14.00,2013-02-18 08:09:00,
2013-02-18 03:12:00,17.1,-11.9,29.72,North,353,8.1,13.1,26,0.00,,---,0.00,VWS V14.00,2013-02-18 08:12:00,
2013-02-18 03:13:00,17.1,-11.9,29.72,North,353,8.1,8.1,26,0.00,,---,0.00,VWS V14.00,2013-02-18 08:13:00,
2013-02-18 03:14:00,17.1,-11.9,29.72,North,353,7.4,8.1,26,0.00,,---,0.00,VWS V14.00,2013-02-18 08:14:00,
2013-02-18 03:17:00,17.2,-11.8,29.72,North,353,11.4,11.4,26,0.00,,---,0.00,VWS V14.00,2013-02-18 08:17:00,
2013-02-18 03:18:00,17.2,-11.8,29.72,North,353,11.4,11.4,26,0.00,,---,0.00,VWS V14.00,2013-02-18 08:18:00,
2013-02-18 03:19:00,17.2,-11.8,29.72,North,353,6.0,11.4,26,0.00,,---,0.00,VWS V14.00,2013-02-18 08:19:00,
2013-02-18 03:22:00,17.4,-11.6,29.72,North,353,12.1,12.1,26,0.00,,---,0.00,VWS V14.00,2013-02-18 08:22:00,
2013-02-18 03:23:00,17.4,-11.6,29.72,North,353,9.4,12.1,26,0.00,,---,0.00,VWS V14.00,2013-02-18 08:23:00,
2013-02-18 03:24:00,17.6,-11.4,29.72,North,353,7.4,8.7,26,0.00,,---,0.00,VWS V14.00,2013-02-18 08:24:00,
2013-02-18 03:25:00,17.6,-11.4,29.72,North,353,9.4,9.4,26,0.00,,---,0.00,VWS V14.00,2013-02-18 08:25:00,
2013-02-18 03:28:00,17.6,-11.4,29.72,North,353,6.0,11.4,26,0.00,,---,0.00,VWS V14.00,2013-02-18 08:28:00,
2013-02-18 03:29:00,17.6,-11.4,29.72,North,353,8.1,12.4,26,0.00,,---,0.00,VWS V14.00,2013-02-18 08:29:00,
2013-02-18 03:30:00,17.6,-11.4,29.72,North,353,11.4,11.4,26,0.00,,---,0.00,VWS V14.00,2013-02-18 08:30:00,
2013-02-18 03:33:00,17.8,-12.1,29.72,North,353,12.4,15.8,25,0.00,,---,0.00,VWS V14.00,2013-02-18 08:33:00,
2013-02-18 03:34:00,17.8,-12.1,29.72,North,353,8.1,8.7,25,0.00,,---,0.00,VWS V14.00,2013-02-18 08:34:00,
2013-02-18 03:35:00,18.0,-11.9,29.72,North,353,6.0,7.4,25,0.00,,---,0.00,VWS V14.00,2013-02-18 08:35:00,
2013-02-18 03:38:00,18.0,-11.9,29.69,North,353,8.7,8.7,25,0.00,,---,0.00,VWS V14.00,2013-02-18 08:38:00,
2013-02-18 03:39:00,18.1,-11.8,29.69,North,353,8.1,8.1,25,0.00,,---,0.00,VWS V14.00,2013-02-18 08:39:00,
2013-02-18 03:40:00,18.1,-11.8,29.69,North,353,8.1,10.7,25,0.00,,---,0.00,VWS V14.00,2013-02-18 08:40:00,
2013-02-18 03:43:00,18.1,-11.8,29.69,North,353,12.1,13.1,25,0.00,,---,0.00,VWS V14.00,2013-02-18 08:43:00,
2013-02-18 03:44:00,18.1,-11.8,29.69,North,353,8.1,11.4,25,0.00,,---,0.00,VWS V14.00,2013-02-18 08:44:00,
2013-02-18 03:45:00,18.1,-11.8,29.69,North,353,12.4,12.4,25,0.00,,---,0.00,VWS V14.00,2013-02-18 08:45:00,
2013-02-18 03:48:00,18.1,-11.8,29.69,North,353,6.7,8.7,25,0.00,,---,0.00,VWS V14.00,2013-02-18 08:48:00,
2013-02-18 03:50:00,18.1,-11.8,29.69,North,353,15.1,15.1,25,0.00,,---,0.00,VWS V14.00,2013-02-18 08:50:00,
2013-02-18 03:53:00,18.1,-11.8,29.72,North,353,7.4,9.4,25,0.00,,---,0.00,VWS V14.00,2013-02-18 08:53:00,
2013-02-18 03:55:00,18.0,-11.9,29.72,North,353,5.4,5.4,25,0.00,,---,0.00,VWS V14.00,2013-02-18 08:55:00,
2013-02-18 03:58:00,17.8,-12.1,29.72,North,353,8.1,8.1,25,0.00,,---,0.00,VWS V14.00,2013-02-18 08:58:00,
2013-02-18 04:00:00,17.8,-12.1,29.72,North,353,8.7,12.1,25,0.00,,---,0.00,VWS V14.00,2013-02-18 09:00:00,
2013-02-18 04:03:00,17.6,-11.4,29.72,North,353,8.1,13.1,26,0.00,,---,0.00,VWS V14.00,2013-02-18 09:03:00,
2013-02-18 04:05:00,17.4,-11.6,29.72,North,353,8.1,8.1,26,0.00,,---,0.00,VWS V14.00,2013-02-18 09:05:00,
2013-02-18 04:08:00,17.4,-10.1,29.69,North,353,8.1,9.4,28,0.00,,---,0.00,VWS V14.00,2013-02-18 09:08:00,
2013-02-18 04:10:00,17.4,-10.1,29.69,North,353,4.7,6.0,28,0.00,,---,0.00,VWS V14.00,2013-02-18 09:10:00,
2013-02-18 04:13:00,17.4,-10.1,29.69,North,353,6.0,7.4,28,0.00,,---,0.00,VWS V14.00,2013-02-18 09:13:00,
2013-02-18 04:15:00,17.4,-10.1,29.69,North,353,7.4,8.1,28,0.00,,---,0.00,VWS V14.00,2013-02-18 09:15:00,
2013-02-18 04:18:00,17.6,-7.9,29.69,North,353,8.1,10.7,31,0.00,,---,0.00,VWS V14.00,2013-02-18 09:18:00,
2013-02-18 04:20:00,17.6,-6.6,29.69,North,353,7.4,12.4,33,0.00,,---,0.00,VWS V14.00,2013-02-18 09:20:00,
2013-02-18 04:23:00,17.6,-6.0,29.69,North,353,5.4,9.4,34,0.00,,---,0.00,VWS V14.00,2013-02-18 09:23:00,
2013-02-18 04:25:00,17.8,-6.4,29.69,North,353,8.7,8.7,33,0.00,,---,0.00,VWS V14.00,2013-02-18 09:25:00,
2013-02-18 04:28:00,18.0,-5.7,29.69,North,353,11.4,11.4,34,0.00,,---,0.00,VWS V14.00,2013-02-18 09:28:00,
2013-02-18 04:29:00,18.0,-5.7,29.69,North,353,8.7,11.4,34,0.00,,---,0.00,VWS V14.00,2013-02-18 09:29:00,
2013-02-18 04:30:00,18.1,-5.5,29.69,North,353,8.7,10.7,34,0.00,,---,0.00,VWS V14.00,2013-02-18 09:30:00,
2013-02-18 04:31:00,18.1,-5.5,29.69,North,353,8.1,10.7,34,0.00,,---,0.00,VWS V14.00,2013-02-18 09:31:00,
2013-02-18 04:33:00,18.3,-5.3,29.69,North,353,8.7,12.1,34,0.00,,---,0.00,VWS V14.00,2013-02-18 09:33:00,
2013-02-18 04:34:00,18.3,-5.3,29.69,North,353,8.1,12.1,34,0.00,,---,0.00,VWS V14.00,2013-02-18 09:34:00,
2013-02-18 04:35:00,18.3,-5.3,29.69,North,353,7.4,11.4,34,0.00,,---,0.00,VWS V14.00,2013-02-18 09:35:00,
2013-02-18 04:36:00,18.3,-5.3,29.69,North,353,8.7,11.4,34,0.00,,---,0.00,VWS V14.00,2013-02-18 09:36:00,
2013-02-18 04:38:00,18.5,-5.2,29.69,North,353,5.4,9.4,34,0.00,,---,0.00,VWS V14.00,2013-02-18 09:38:00,
2013-02-18 04:39:00,18.5,-5.2,29.69,North,353,8.1,9.4,34,0.00,,---,0.00,VWS V14.00,2013-02-18 09:39:00,
2013-02-18 04:41:00,18.7,-4.4,29.69,North,353,7.4,7.4,35,0.00,,---,0.00,VWS V14.00,2013-02-18 09:41:00,
2013-02-18 04:44:00,18.7,-4.4,29.69,North,353,6.0,9.4,35,0.00,,---,0.00,VWS V14.00,2013-02-18 09:44:00,
2013-02-18 04:46:00,18.7,-4.4,29.69,North,353,5.4,5.4,35,0.00,,---,0.00,VWS V14.00,2013-02-18 09:46:00,
2013-02-18 04:49:00,19.0,-4.1,29.69,North,353,6.0,13.1,35,0.00,,---,0.00,VWS V14.00,2013-02-18 09:49:00,
2013-02-18 04:51:00,19.0,-4.1,29.66,North,353,5.4,8.7,35,0.00,,---,0.00,VWS V14.00,2013-02-18 09:51:00,
2013-02-18 04:54:00,19.0,-4.1,29.66,North,353,6.7,6.7,35,0.00,,---,0.00,VWS V14.00,2013-02-18 09:54:00,
2013-02-18 04:56:00,19.0,-4.1,29.66,North,353,6.0,8.1,35,0.00,,---,0.00,VWS V14.00,2013-02-18 09:56:00,
2013-02-18 04:59:00,19.2,-3.9,29.66,North,353,10.1,10.1,35,0.00,,---,0.00,VWS V14.00,2013-02-18 09:59:00,
2013-02-18 05:01:00,19.2,-3.3,29.66,North,353,5.4,9.4,36,0.00,,---,0.00,VWS V14.00,2013-02-18 10:01:00,
2013-02-18 05:04:00,19.2,-3.3,29.66,North,353,9.4,9.4,36,0.00,,---,0.00,VWS V14.00,2013-02-18 10:04:00,
2013-02-18 05:06:00,19.2,-3.3,29.66,North,353,6.7,9.4,36,0.00,,---,0.00,VWS V14.00,2013-02-18 10:06:00,
2013-02-18 05:07:00,19.2,-3.3,29.66,North,353,6.0,6.7,36,0.00,,---,0.00,VWS V14.00,2013-02-18 10:07:00,
2013-02-18 05:09:00,19.2,-3.3,29.66,North,353,8.1,8.1,36,0.00,,---,0.00,VWS V14.00,2013-02-18 10:09:00,
2013-02-18 05:11:00,19.2,-2.8,29.66,North,353,10.7,10.7,37,0.00,,---,0.00,VWS V14.00,2013-02-18 10:11:00,
2013-02-18 05:12:00,19.2,-2.8,29.66,North,353,8.1,12.1,37,0.00,,---,0.00,VWS V14.00,2013-02-18 10:12:00,
2013-02-18 05:14:00,19.2,-2.8,29.66,North,353,5.4,6.0,37,0.00,,---,0.00,VWS V14.00,2013-02-18 10:14:00,
2013-02-18 05:16:00,19.2,-2.8,29.66,North,353,9.4,9.4,37,0.00,,---,0.00,VWS V14.00,2013-02-18 10:16:00,
2013-02-18 05:17:00,19.2,-2.8,29.66,North,353,9.4,9.4,37,0.00,,---,0.00,VWS V14.00,2013-02-18 10:17:00,
2013-02-18 05:19:00,19.4,-2.0,29.66,North,353,5.4,12.4,38,0.00,,---,0.00,VWS V14.00,2013-02-18 10:19:00,
2013-02-18 05:21:00,19.4,-2.0,29.66,North,353,6.0,8.1,38,0.00,,---,0.00,VWS V14.00,2013-02-18 10:21:00,
2013-02-18 05:22:00,19.4,-2.0,29.66,North,353,5.4,7.4,38,0.00,,---,0.00,VWS V14.00,2013-02-18 10:22:00,
2013-02-18 05:24:00,19.2,-2.8,29.66,North,353,5.4,7.4,37,0.00,,---,0.00,VWS V14.00,2013-02-18 10:24:00,
2013-02-18 05:26:00,19.4,-2.0,29.66,North,353,6.0,9.4,38,0.00,,---,0.00,VWS V14.00,2013-02-18 10:26:00,
2013-02-18 05:27:00,19.4,-2.0,29.66,North,353,8.1,8.7,38,0.00,,---,0.00,VWS V14.00,2013-02-18 10:27:00,
2013-02-18 05:29:00,19.6,-1.9,29.66,North,353,9.4,9.4,38,0.00,,---,0.00,VWS V14.00,2013-02-18 10:29:00,
2013-02-18 05:31:00,19.8,-1.7,29.66,North,353,8.1,8.1,38,0.00,,---,0.00,VWS V14.00,2013-02-18 10:31:00,
2013-02-18 05:32:00,19.8,-2.3,29.66,North,353,6.0,6.0,37,0.00,,---,0.00,VWS V14.00,2013-02-18 10:32:00,
2013-02-18 05:34:00,19.9,-2.1,29.66,North,353,5.4,11.4,37,0.00,,---,0.00,VWS V14.00,2013-02-18 10:34:00,
2013-02-18 05:36:00,20.1,-2.0,29.66,North,353,8.1,8.7,37,0.00,,---,0.00,VWS V14.00,2013-02-18 10:36:00,
2013-02-18 05:37:00,20.1,-2.0,29.66,North,353,8.7,8.7,37,0.00,,---,0.00,VWS V14.00,2013-02-18 10:37:00,
2013-02-18 05:39:00,20.3,-1.8,29.66,North,353,8.7,12.1,37,0.00,,---,0.00,VWS V14.00,2013-02-18 10:39:00,
2013-02-18 05:41:00,20.5,-2.2,29.66,North,353,7.4,8.7,36,0.00,,---,0.00,VWS V14.00,2013-02-18 10:41:00,
2013-02-18 05:42:00,20.5,-2.2,29.66,North,353,5.4,8.7,36,0.00,,---,0.00,VWS V14.00,2013-02-18 10:42:00,
2013-02-18 05:44:00,20.7,-2.1,29.66,North,353,9.4,15.1,36,0.00,,---,0.00,VWS V14.00,2013-02-18 10:44:00,
2013-02-18 05:46:00,20.7,-2.7,29.66,North,353,8.1,8.7,35,0.00,,---,0.00,VWS V14.00,2013-02-18 10:46:00,
2013-02-18 05:47:00,20.8,-1.9,29.66,North,353,8.1,10.1,36,0.00,,---,0.00,VWS V14.00,2013-02-18 10:47:00,
2013-02-18 05:50:00,20.8,-1.9,29.66,North,353,8.7,8.7,36,0.00,,---,0.00,VWS V14.00,2013-02-18 10:50:00,
2013-02-18 05:51:00,20.8,-1.9,29.63,North,353,7.4,7.4,36,0.00,,---,0.00,VWS V14.00,2013-02-18 10:51:00,
2013-02-18 05:52:00,20.8,-1.9,29.63,North,353,8.1,8.1,36,0.00,,---,0.00,VWS V14.00,2013-02-18 10:52:00,
2013-02-18 05:55:00,21.2,-1.0,29.63,North,353,13.1,13.1,37,0.00,,---,0.00,VWS V14.00,2013-02-18 10:55:00,
2013-02-18 05:56:00,21.2,-1.6,29.63,North,353,8.1,8.1,36,0.00,,---,0.00,VWS V14.00,2013-02-18 10:56:00,
2013-02-18 05:57:00,21.2,-1.6,29.63,North,353,8.7,8.7,36,0.00,,---,0.00,VWS V14.00,2013-02-18 10:57:00,
2013-02-18 06:00:00,21.2,-1.6,29.63,North,353,8.1,8.1,36,0.00,,---,0.00,VWS V14.00,2013-02-18 11:00:00,
2013-02-18 06:01:00,21.2,-1.6,29.63,North,353,7.4,7.4,36,0.00,,---,0.00,VWS V14.00,2013-02-18 11:01:00,
2013-02-18 06:02:00,21.4,-1.4,29.63,North,353,8.7,8.7,36,0.00,,---,0.00,VWS V14.00,2013-02-18 11:02:00,
2013-02-18 06:05:00,21.7,-1.1,29.63,North,353,12.4,15.1,36,0.00,,---,0.00,VWS V14.00,2013-02-18 11:05:00,
2013-02-18 06:06:00,21.7,-1.1,29.63,North,353,8.1,9.4,36,0.00,,---,0.00,VWS V14.00,2013-02-18 11:06:00,
2013-02-18 06:07:00,21.7,-1.1,29.63,North,353,13.1,13.1,36,0.00,,---,0.00,VWS V14.00,2013-02-18 11:07:00,
2013-02-18 06:11:00,21.9,-0.9,29.63,North,353,6.0,8.7,36,0.00,,---,0.00,VWS V14.00,2013-02-18 11:11:00,
2013-02-18 06:12:00,21.9,-0.9,29.63,North,353,8.7,10.7,36,0.00,,---,0.00,VWS V14.00,2013-02-18 11:12:00,
2013-02-18 06:16:00,21.9,-0.9,29.63,North,353,9.4,9.4,36,0.00,,---,0.00,VWS V14.00,2013-02-18 11:16:00,
2013-02-18 06:17:00,21.9,-0.9,29.63,North,353,8.1,8.7,36,0.00,,---,0.00,VWS V14.00,2013-02-18 11:17:00,
2013-02-18 06:21:00,22.1,-0.8,29.63,North,353,12.1,12.1,36,0.00,,---,0.00,VWS V14.00,2013-02-18 11:21:00,
2013-02-18 06:22:00,22.1,-0.8,29.63,North,353,12.1,12.1,36,0.00,,---,0.00,VWS V14.00,2013-02-18 11:22:00,
2013-02-18 06:26:00,22.3,-0.6,29.63,North,353,8.7,13.1,36,0.00,,---,0.00,VWS V14.00,2013-02-18 11:26:00,
2013-02-18 06:27:00,22.3,-0.6,29.63,North,353,9.4,9.4,36,0.00,,---,0.00,VWS V14.00,2013-02-18 11:27:00,
2013-02-18 06:28:00,22.1,-0.8,29.63,North,353,8.1,9.4,36,0.00,,---,0.00,VWS V14.00,2013-02-18 11:28:00,
2013-02-18 06:31:00,22.3,0.0,29.63,North,353,5.4,6.0,37,0.00,,---,0.00,VWS V14.00,2013-02-18 11:31:00,
2013-02-18 06:32:00,22.1,-0.2,29.63,North,353,5.4,5.4,37,0.00,,---,0.00,VWS V14.00,2013-02-18 11:32:00,
2013-02-18 06:33:00,22.1,-0.2,29.63,North,353,5.4,7.4,37,0.00,,---,0.00,VWS V14.00,2013-02-18 11:33:00,
2013-02-18 06:37:00,22.3,0.5,29.63,North,353,8.7,9.4,38,0.00,,---,0.00,VWS V14.00,2013-02-18 11:37:00,
2013-02-18 06:38:00,22.3,0.5,29.63,North,353,8.1,8.1,38,0.00,,---,0.00,VWS V14.00,2013-02-18 11:38:00,
2013-02-18 06:42:00,22.3,0.5,29.63,North,353,5.4,7.4,38,0.00,,---,0.00,VWS V14.00,2013-02-18 11:42:00,
2013-02-18 06:43:00,22.3,0.5,29.63,North,353,12.4,12.4,38,0.00,,---,0.00,VWS V14.00,2013-02-18 11:43:00,
2013-02-18 06:47:00,22.5,1.3,29.63,North,353,13.1,13.1,39,0.00,,---,0.00,VWS V14.00,2013-02-18 11:47:00,
2013-02-18 06:48:00,22.5,1.3,29.63,North,353,8.1,8.7,39,0.00,,---,0.00,VWS V14.00,2013-02-18 11:48:00,
2013-02-18 06:52:00,22.6,1.4,29.63,North,353,11.4,11.4,39,0.00,,---,0.00,VWS V14.00,2013-02-18 11:52:00,
2013-02-18 06:54:00,22.6,1.4,29.63,North,353,8.1,11.4,39,0.00,,---,0.00,VWS V14.00,2013-02-18 11:54:00,
2013-02-18 06:57:00,22.6,2.0,29.63,North,353,8.1,12.1,40,0.00,,---,0.00,VWS V14.00,2013-02-18 11:57:00,
2013-02-18 06:58:00,22.6,2.0,29.63,North,353,8.1,12.1,40,0.00,,---,0.00,VWS V14.00,2013-02-18 11:58:00,
2013-02-18 06:59:00,22.8,2.1,29.63,North,353,8.7,12.4,40,0.00,,---,0.00,VWS V14.00,2013-02-18 11:59:00,
2013-02-18 07:02:00,22.8,3.2,29.63,North,353,12.4,12.4,42,0.00,,---,0.00,VWS V14.00,2013-02-18 12:02:00,
2013-02-18 07:03:00,22.8,3.2,29.63,North,353,12.4,12.4,42,0.00,,---,0.00,VWS V14.00,2013-02-18 12:03:00,
2013-02-18 07:04:00,22.8,3.2,29.63,North,353,8.7,13.1,42,0.00,,---,0.00,VWS V14.00,2013-02-18 12:04:00,
2013-02-18 07:07:00,22.8,3.2,29.63,North,353,8.7,12.4,42,0.00,,---,0.00,VWS V14.00,2013-02-18 12:07:00,
2013-02-18 07:08:00,22.8,3.2,29.63,North,353,7.4,12.4,42,0.00,,---,0.00,VWS V14.00,2013-02-18 12:08:00,
2013-02-18 07:09:00,22.8,3.7,29.63,North,353,9.4,11.4,43,0.00,,---,0.00,VWS V14.00,2013-02-18 12:09:00,
2013-02-18 07:12:00,23.0,3.8,29.63,North,353,12.4,12.4,43,0.00,,---,0.00,VWS V14.00,2013-02-18 12:12:00,
2013-02-18 07:13:00,23.0,3.8,29.63,North,353,12.4,12.4,43,0.00,,---,0.00,VWS V14.00,2013-02-18 12:13:00,
2013-02-18 07:14:00,23.0,4.3,29.63,North,353,8.7,10.1,44,0.00,,---,0.00,VWS V14.00,2013-02-18 12:14:00,
2013-02-18 07:18:00,23.0,4.3,29.63,North,353,4.7,10.7,44,0.00,,---,0.00,VWS V14.00,2013-02-18 12:18:00,
2013-02-18 07:19:00,23.0,4.8,29.63,North,353,5.4,5.4,45,0.00,,---,0.00,VWS V14.00,2013-02-18 12:19:00,
2013-02-18 07:23:00,23.2,5.0,29.60,North,353,11.4,12.4,45,0.00,,---,0.00,VWS V14.00,2013-02-18 12:23:00,
2013-02-18 07:24:00,23.2,5.5,29.60,North,353,12.4,12.4,46,0.00,,---,0.00,VWS V14.00,2013-02-18 12:24:00,
2013-02-18 07:28:00,23.2,5.5,29.60,North,353,7.4,7.4,46,0.00,,---,0.00,VWS V14.00,2013-02-18 12:28:00,
2013-02-18 07:29:00,23.2,5.9,29.60,North,353,8.1,8.7,47,0.00,,---,0.00,VWS V14.00,2013-02-18 12:29:00,
2013-02-18 07:33:00,23.4,6.6,29.60,North,353,8.7,8.7,48,0.00,,---,0.00,VWS V14.00,2013-02-18 12:33:00,
2013-02-18 07:34:00,23.4,6.6,29.60,North,353,8.7,8.7,48,0.00,,---,0.00,VWS V14.00,2013-02-18 12:34:00,
2013-02-18 07:38:00,23.4,7.5,29.60,North,353,6.0,6.0,50,0.00,,---,0.00,VWS V14.00,2013-02-18 12:38:00,
2013-02-18 07:39:00,23.4,7.5,29.60,North,353,12.1,12.1,50,0.00,,---,0.00,VWS V14.00,2013-02-18 12:39:00,
2013-02-18 07:43:00,23.4,7.9,29.60,North,353,12.1,12.1,51,0.00,,---,0.00,VWS V14.00,2013-02-18 12:43:00,
2013-02-18 07:44:00,23.4,8.4,29.60,North,353,8.1,8.7,52,0.00,,---,0.00,VWS V14.00,2013-02-18 12:44:00,
2013-02-18 07:48:00,23.5,9.4,29.60,North,353,8.1,9.4,54,0.00,,---,0.00,VWS V14.00,2013-02-18 12:48:00,
2013-02-18 07:49:00,23.5,9.4,29.60,North,353,8.1,8.1,54,0.00,,---,0.00,VWS V14.00,2013-02-18 12:49:00,
2013-02-18 07:53:00,23.5,9.8,29.60,North,353,9.4,9.4,55,0.00,,---,0.00,VWS V14.00,2013-02-18 12:53:00,
2013-02-18 07:54:00,23.5,9.8,29.60,North,353,8.7,9.4,55,0.00,,---,0.00,VWS V14.00,2013-02-18 12:54:00,
2013-02-18 07:58:00,23.5,10.6,29.60,North,353,8.7,9.4,57,0.00,,---,0.00,VWS V14.00,2013-02-18 12:58:00,
2013-02-18 07:59:00,23.5,10.6,29.60,North,353,8.7,12.1,57,0.00,,---,0.00,VWS V14.00,2013-02-18 12:59:00,
2013-02-18 08:03:00,23.7,11.1,29.60,North,353,9.4,9.4,58,0.00,,---,0.00,VWS V14.00,2013-02-18 13:03:00,
2013-02-18 08:04:00,23.7,11.1,29.60,North,353,4.0,4.7,58,0.00,,---,0.00,VWS V14.00,2013-02-18 13:04:00,
2013-02-18 08:08:00,23.9,11.7,29.60,North,353,8.7,9.4,59,0.00,,---,0.00,VWS V14.00,2013-02-18 13:08:00,
2013-02-18 08:09:00,23.9,11.7,29.60,North,353,9.4,9.4,59,0.00,,---,0.00,VWS V14.00,2013-02-18 13:09:00,
2013-02-18 08:13:00,23.9,12.1,29.60,North,353,9.4,9.4,60,0.00,,---,0.00,VWS V14.00,2013-02-18 13:13:00,
2013-02-18 08:14:00,23.9,11.7,29.60,North,353,5.4,9.4,59,0.00,,---,0.00,VWS V14.00,2013-02-18 13:14:00,
2013-02-18 08:18:00,24.1,11.8,29.60,North,353,11.4,12.4,59,0.00,,---,0.00,VWS V14.00,2013-02-18 13:18:00,
2013-02-18 08:19:00,24.1,11.8,29.60,North,353,8.1,10.1,59,0.00,,---,0.00,VWS V14.00,2013-02-18 13:19:00,
2013-02-18 08:20:00,24.3,12.0,29.60,North,353,9.4,9.4,59,0.00,,---,0.00,VWS V14.00,2013-02-18 13:20:00,
2013-02-18 08:24:00,24.3,12.0,29.60,North,353,8.1,13.1,59,0.00,,---,0.00,VWS V14.00,2013-02-18 13:24:00,
2013-02-18 08:25:00,24.3,12.0,29.60,North,353,5.4,5.4,59,0.00,,---,0.00,VWS V14.00,2013-02-18 13:25:00,
2013-02-18 08:29:00,24.4,12.2,29.60,North,353,6.0,9.4,59,0.00,,---,0.00,VWS V14.00,2013-02-18 13:29:00,
2013-02-18 08:30:00,24.4,12.2,29.60,North,353,5.4,11.4,59,0.00,,---,0.00,VWS V14.00,2013-02-18 13:30:00,
2013-02-18 08:34:00,24.4,11.8,29.60,North,353,7.4,10.1,58,0.00,,---,0.00,VWS V14.00,2013-02-18 13:34:00,
2013-02-18 08:35:00,24.4,11.8,29.60,North,353,7.4,7.4,58,0.00,,---,0.00,VWS V14.00,2013-02-18 13:35:00,
2013-02-18 08:39:00,24.6,11.6,29.57,North,353,8.7,8.7,57,0.00,,---,0.00,VWS V14.00,2013-02-18 13:39:00,
2013-02-18 08:40:00,24.6,11.6,29.57,North,353,8.7,9.4,57,0.00,,---,0.00,VWS V14.00,2013-02-18 13:40:00,
2013-02-18 08:44:00,24.8,11.3,29.57,North,353,13.8,13.8,56,0.00,,---,0.00,VWS V14.00,2013-02-18 13:44:00,
2013-02-18 08:45:00,24.8,11.3,29.57,North,353,8.1,8.7,56,0.00,,---,0.00,VWS V14.00,2013-02-18 13:45:00,
2013-02-18 08:49:00,25.0,11.1,29.57,North,353,9.4,9.4,55,0.00,,---,0.00,VWS V14.00,2013-02-18 13:49:00,
2013-02-18 08:50:00,25.0,11.1,29.57,North,353,8.1,8.7,55,0.00,,---,0.00,VWS V14.00,2013-02-18 13:50:00,
2013-02-18 08:54:00,25.2,10.4,29.57,North,353,5.4,8.1,53,0.00,,---,0.00,VWS V14.00,2013-02-18 13:54:00,
2013-02-18 08:56:00,25.2,10.0,29.57,North,353,8.1,9.4,52,0.00,,---,0.00,VWS V14.00,2013-02-18 13:56:00,
2013-02-18 08:59:00,25.2,10.0,29.57,North,353,8.1,8.1,52,0.00,,---,0.00,VWS V14.00,2013-02-18 13:59:00,
2013-02-18 09:01:00,25.2,9.6,29.57,North,353,9.4,9.4,51,0.00,,---,0.00,VWS V14.00,2013-02-18 14:01:00,
2013-02-18 09:04:00,25.3,9.3,29.57,North,353,8.1,8.1,50,0.00,,---,0.00,VWS V14.00,2013-02-18 14:04:00,
2013-02-18 09:06:00,25.3,9.3,29.57,North,353,8.7,11.4,50,0.00,,---,0.00,VWS V14.00,2013-02-18 14:06:00,
2013-02-18 09:09:00,25.3,8.9,29.57,North,353,8.1,9.4,49,0.00,,---,0.00,VWS V14.00,2013-02-18 14:09:00,
2013-02-18 09:11:00,25.3,8.9,29.57,North,353,8.7,9.4,49,0.00,,---,0.00,VWS V14.00,2013-02-18 14:11:00,
2013-02-18 09:14:00,25.3,8.4,29.57,North,353,8.1,8.1,48,0.00,,---,0.00,VWS V14.00,2013-02-18 14:14:00,
2013-02-18 09:16:00,25.3,8.4,29.57,North,353,8.1,12.1,48,0.00,,---,0.00,VWS V14.00,2013-02-18 14:16:00,
2013-02-18 09:19:00,25.3,8.4,29.57,North,353,8.1,10.7,48,0.00,,---,0.00,VWS V14.00,2013-02-18 14:19:00,
2013-02-18 09:21:00,25.3,7.9,29.57,North,353,8.1,12.4,47,0.00,,---,0.00,VWS V14.00,2013-02-18 14:21:00,
2013-02-18 09:24:00,25.3,7.9,29.57,North,353,8.7,12.1,47,0.00,,---,0.00,VWS V14.00,2013-02-18 14:24:00,
2013-02-18 09:26:00,25.3,7.9,29.57,North,353,9.4,12.1,47,0.00,,---,0.00,VWS V14.00,2013-02-18 14:26:00,
2013-02-18 09:29:00,25.5,7.6,29.57,North,353,10.1,12.1,46,0.00,,---,0.00,VWS V14.00,2013-02-18 14:29:00,
2013-02-18 09:31:00,25.5,7.6,29.57,North,353,9.4,9.4,46,0.00,,---,0.00,VWS V14.00,2013-02-18 14:31:00,
2013-02-18 09:34:00,25.5,7.6,29.57,North,353,6.7,8.7,46,0.00,,---,0.00,VWS V14.00,2013-02-18 14:34:00,
2013-02-18 09:36:00,25.5,7.2,29.54,North,353,8.1,9.4,45,0.00,,---,0.00,VWS V14.00,2013-02-18 14:36:00,
2013-02-18 09:39:00,25.5,7.2,29.54,North,353,8.7,9.4,45,0.00,,---,0.00,VWS V14.00,2013-02-18 14:39:00,
2013-02-18 09:41:00,25.5,7.2,29.54,North,353,9.4,9.4,45,0.00,,---,0.00,VWS V14.00,2013-02-18 14:41:00,
2013-02-18 09:44:00,25.7,6.8,29.54,North,353,8.1,9.4,44,0.00,,---,0.00,VWS V14.00,2013-02-18 14:44:00,
2013-02-18 09:46:00,25.7,6.8,29.54,North,353,10.1,10.1,44,0.00,,---,0.00,VWS V14.00,2013-02-18 14:46:00,
2013-02-18 09:47:00,25.7,6.8,29.54,North,353,12.1,12.1,44,0.00,,---,0.00,VWS V14.00,2013-02-18 14:47:00,
2013-02-18 09:49:00,25.7,6.8,29.54,North,353,11.4,11.4,44,0.00,,---,0.00,VWS V14.00,2013-02-18 14:49:00,
2013-02-18 09:51:00,25.7,6.3,29.54,North,353,11.4,11.4,43,0.00,,---,0.00,VWS V14.00,2013-02-18 14:51:00,
2013-02-18 09:52:00,25.7,6.3,29.54,North,353,9.4,11.4,43,0.00,,---,0.00,VWS V14.00,2013-02-18 14:52:00,
2013-02-18 09:55:00,25.9,6.5,29.54,North,353,9.4,12.1,43,0.00,,---,0.00,VWS V14.00,2013-02-18 14:55:00,
2013-02-18 09:57:00,25.9,6.5,29.54,North,353,7.4,7.4,43,0.00,,---,0.00,VWS V14.00,2013-02-18 14:57:00,
2013-02-18 10:00:00,26.1,6.6,29.54,North,353,12.1,12.1,43,0.00,,---,0.00,VWS V14.00,2013-02-18 15:00:00,
2013-02-18 10:02:00,26.1,6.1,29.54,North,353,8.7,9.4,42,0.00,,---,0.00,VWS V14.00,2013-02-18 15:02:00,
2013-02-18 10:05:00,26.1,6.1,29.54,North,353,8.7,10.7,42,0.00,,---,0.00,VWS V14.00,2013-02-18 15:05:00,
2013-02-18 10:07:00,26.2,6.3,29.54,North,353,8.7,9.4,42,0.00,,---,0.00,VWS V14.00,2013-02-18 15:07:00,
2013-02-18 10:10:00,26.2,6.3,29.54,North,353,9.4,9.4,42,0.00,,---,0.00,VWS V14.00,2013-02-18 15:10:00,
2013-02-18 10:12:00,26.4,6.4,29.54,North,353,6.0,9.4,42,0.00,,---,0.00,VWS V14.00,2013-02-18 15:12:00,
2013-02-18 10:15:00,26.4,5.9,29.54,North,353,8.1,12.4,41,0.00,,---,0.00,VWS V14.00,2013-02-18 15:15:00,
2013-02-18 10:17:00,26.6,6.1,29.54,North,353,7.4,8.1,41,0.00,,---,0.00,VWS V14.00,2013-02-18 15:17:00,
2013-02-18 10:20:00,26.8,6.2,29.54,North,353,8.7,8.7,41,0.00,,---,0.00,VWS V14.00,2013-02-18 15:20:00,
2013-02-18 10:22:00,26.8,5.7,29.54,North,353,12.4,12.4,40,0.00,,---,0.00,VWS V14.00,2013-02-18 15:22:00,
2013-02-18 10:25:00,26.8,4.6,29.54,North,353,12.4,12.4,38,0.00,,---,0.00,VWS V14.00,2013-02-18 15:25:00,
2013-02-18 10:27:00,26.8,4.6,29.54,North,353,8.7,9.4,38,0.00,,---,0.00,VWS V14.00,2013-02-18 15:27:00,
2013-02-18 10:30:00,27.0,4.8,29.54,North,353,8.1,8.1,38,0.00,,---,0.00,VWS V14.00,2013-02-18 15:30:00,
2013-02-18 10:32:00,27.0,4.8,29.54,North,353,9.4,9.4,38,0.00,,---,0.00,VWS V14.00,2013-02-18 15:32:00,
2013-02-18 10:33:00,27.0,4.8,29.54,North,353,7.4,9.4,38,0.00,,---,0.00,VWS V14.00,2013-02-18 15:33:00,
2013-02-18 10:35:00,27.1,4.9,29.54,North,353,8.1,9.4,38,0.00,,---,0.00,VWS V14.00,2013-02-18 15:35:00,
2013-02-18 10:37:00,27.1,4.3,29.51,North,353,5.4,7.4,37,0.00,,---,0.00,VWS V14.00,2013-02-18 15:37:00,
2013-02-18 10:38:00,27.1,4.3,29.51,North,353,9.4,9.4,37,0.00,,---,0.00,VWS V14.00,2013-02-18 15:38:00,
2013-02-18 10:40:00,27.3,3.9,29.51,North,353,6.0,8.1,36,0.00,,---,0.00,VWS V14.00,2013-02-18 15:40:00,
2013-02-18 10:42:00,27.5,4.1,29.51,North,353,4.7,7.4,36,0.00,,---,0.00,VWS V14.00,2013-02-18 15:42:00,
2013-02-18 10:43:00,27.5,4.1,29.51,North,353,4.7,7.4,36,0.00,,---,0.00,VWS V14.00,2013-02-18 15:43:00,
2013-02-18 10:45:00,27.5,3.5,29.51,North,353,8.7,9.4,35,0.00,,---,0.00,VWS V14.00,2013-02-18 15:45:00,
2013-02-18 10:47:00,27.3,3.3,29.51,North,353,12.4,12.4,35,0.00,,---,0.00,VWS V14.00,2013-02-18 15:47:00,
2013-02-18 10:48:00,27.3,3.3,29.51,North,353,11.4,11.4,35,0.00,,---,0.00,VWS V14.00,2013-02-18 15:48:00,
2013-02-18 10:50:00,27.5,3.5,29.51,North,353,8.7,8.7,35,0.00,,---,0.00,VWS V14.00,2013-02-18 15:50:00,
2013-02-18 10:52:00,27.5,3.5,29.51,North,353,8.7,10.1,35,0.00,,---,0.00,VWS V14.00,2013-02-18 15:52:00,
2013-02-18 10:53:00,27.7,3.6,29.51,North,353,5.4,5.4,35,0.00,,---,0.00,VWS V14.00,2013-02-18 15:53:00,
2013-02-18 10:55:00,27.7,3.6,29.51,North,353,11.4,11.4,35,0.00,,---,0.00,VWS V14.00,2013-02-18 15:55:00,
2013-02-18 10:57:00,27.9,3.2,29.51,North,353,5.4,8.1,34,0.00,,---,0.00,VWS V14.00,2013-02-18 15:57:00,
2013-02-18 10:58:00,27.9,3.2,29.51,North,353,6.0,9.4,34,0.00,,---,0.00,VWS V14.00,2013-02-18 15:58:00,
2013-02-18 11:00:00,28.0,3.3,29.51,North,353,8.7,12.1,34,0.00,,---,0.00,VWS V14.00,2013-02-18 16:00:00,
2013-02-18 11:02:00,28.2,2.8,29.51,North,353,7.4,8.1,33,0.00,,---,0.00,VWS V14.00,2013-02-18 16:02:00,
2013-02-18 11:03:00,28.2,2.8,29.51,North,353,8.1,8.1,33,0.00,,---,0.00,VWS V14.00,2013-02-18 16:03:00,
2013-02-18 11:05:00,28.0,2.7,29.51,North,353,8.7,12.1,33,0.00,,---,0.00,VWS V14.00,2013-02-18 16:05:00,
2013-02-18 11:07:00,28.2,2.8,29.51,North,353,8.1,8.7,33,0.00,,---,0.00,VWS V14.00,2013-02-18 16:07:00,
2013-02-18 11:08:00,28.2,2.8,29.51,North,353,6.0,8.1,33,0.00,,---,0.00,VWS V14.00,2013-02-18 16:08:00,
2013-02-18 11:10:00,28.4,3.0,29.51,North,353,6.0,8.7,33,0.00,,---,0.00,VWS V14.00,2013-02-18 16:10:00,
2013-02-18 11:12:00,28.6,2.5,29.51,North,353,6.0,8.1,32,0.00,,---,0.00,VWS V14.00,2013-02-18 16:12:00,
2013-02-18 11:13:00,28.6,2.5,29.51,North,353,12.4,12.4,32,0.00,,---,0.00,VWS V14.00,2013-02-18 16:13:00,
2013-02-18 11:16:00,28.4,3.0,29.51,North,353,8.7,15.8,33,0.00,,---,0.00,VWS V14.00,2013-02-18 16:16:00,
2013-02-18 11:17:00,28.4,3.0,29.51,North,353,8.1,11.4,33,0.00,,---,0.00,VWS V14.00,2013-02-18 16:17:00,
2013-02-18 11:18:00,28.4,3.0,29.51,North,353,8.1,9.4,33,0.00,,---,0.00,VWS V14.00,2013-02-18 16:18:00,
2013-02-18 11:21:00,28.6,2.5,29.51,North,353,8.7,13.1,32,0.00,,---,0.00,VWS V14.00,2013-02-18 16:21:00,
2013-02-18 11:22:00,28.6,2.5,29.51,North,353,8.1,9.4,32,0.00,,---,0.00,VWS V14.00,2013-02-18 16:22:00,
2013-02-18 11:23:00,28.6,2.5,29.51,North,353,8.7,9.4,32,0.00,,---,0.00,VWS V14.00,2013-02-18 16:23:00,
2013-02-18 11:26:00,28.8,2.6,29.51,North,353,8.7,11.4,32,0.00,,---,0.00,VWS V14.00,2013-02-18 16:26:00,
2013-02-18 11:27:00,28.6,2.5,29.51,North,353,8.7,9.4,32,0.00,,---,0.00,VWS V14.00,2013-02-18 16:27:00,
2013-02-18 11:28:00,28.6,2.5,29.51,North,353,8.1,8.1,32,0.00,,---,0.00,VWS V14.00,2013-02-18 16:28:00,
2013-02-18 11:31:00,28.8,2.6,29.51,North,353,9.4,9.4,32,0.00,,---,0.00,VWS V14.00,2013-02-18 16:31:00,
2013-02-18 11:32:00,28.8,2.6,29.51,North,353,11.4,13.1,32,0.00,,---,0.00,VWS V14.00,2013-02-18 16:32:00,
2013-02-18 11:34:00,28.9,2.8,29.51,North,353,7.4,11.4,32,0.00,,---,0.00,VWS V14.00,2013-02-18 16:34:00,
2013-02-18 11:36:00,28.9,2.8,29.48,North,353,4.7,9.4,32,0.00,,---,0.00,VWS V14.00,2013-02-18 16:36:00,
2013-02-18 11:38:00,29.1,2.3,29.48,North,353,11.4,11.4,31,0.00,,---,0.00,VWS V14.00,2013-02-18 16:38:00,
2013-02-18 11:39:00,28.9,2.1,29.48,North,353,9.4,12.4,31,0.00,,---,0.00,VWS V14.00,2013-02-18 16:39:00,
2013-02-18 11:41:00,29.1,2.3,29.48,North,353,13.1,13.1,31,0.00,,---,0.00,VWS V14.00,2013-02-18 16:41:00,
2013-02-18 11:43:00,29.1,2.3,29.48,North,353,9.4,9.4,31,0.00,,---,0.00,VWS V14.00,2013-02-18 16:43:00,
2013-02-18 11:44:00,29.1,2.3,29.48,North,353,4.7,8.1,31,0.00,,---,0.00,VWS V14.00,2013-02-18 16:44:00,
2013-02-18 11:46:00,29.5,2.6,29.48,North,353,6.0,8.1,31,0.00,,---,0.00,VWS V14.00,2013-02-18 16:46:00,
2013-02-18 11:48:00,29.5,2.6,29.48,North,353,7.4,11.4,31,0.00,,---,0.00,VWS V14.00,2013-02-18 16:48:00,
2013-02-18 11:49:00,29.5,2.6,29.48,North,353,6.0,6.0,31,0.00,,---,0.00,VWS V14.00,2013-02-18 16:49:00,
2013-02-18 11:51:00,29.7,2.7,29.48,North,353,8.7,10.7,31,0.00,,---,0.00,VWS V14.00,2013-02-18 16:51:00,
2013-02-18 11:53:00,29.7,2.7,29.48,North,353,11.4,11.4,31,0.00,,---,0.00,VWS V14.00,2013-02-18 16:53:00,
2013-02-18 11:54:00,29.8,2.9,29.48,North,353,6.0,6.0,31,0.00,,---,0.00,VWS V14.00,2013-02-18 16:54:00,
2013-02-18 11:56:00,30.0,3.1,29.48,North,353,6.0,7.4,31,0.00,,---,0.00,VWS V14.00,2013-02-18 16:56:00,
2013-02-18 11:58:00,30.2,2.5,29.48,North,353,4.7,8.7,30,0.00,,---,0.00,VWS V14.00,2013-02-18 16:58:00,
2013-02-18 11:59:00,30.2,2.5,29.48,North,353,8.1,8.1,30,0.00,,---,0.00,VWS V14.00,2013-02-18 16:59:00,
2013-02-18 12:01:00,30.0,2.3,29.48,North,353,7.4,7.4,30,0.00,,---,0.00,VWS V14.00,2013-02-18 17:01:00,
2013-02-18 12:03:00,30.0,2.3,29.48,North,353,11.4,11.4,30,0.00,,---,0.00,VWS V14.00,2013-02-18 17:03:00,
2013-02-18 12:04:00,30.2,2.5,29.48,North,353,6.0,9.4,30,0.00,,---,0.00,VWS V14.00,2013-02-18 17:04:00,
2013-02-18 12:06:00,30.2,2.5,29.48,North,353,9.4,9.4,30,0.00,,---,0.00,VWS V14.00,2013-02-18 17:06:00,
2013-02-18 12:08:00,30.2,2.5,29.48,North,353,8.1,8.1,30,0.00,,---,0.00,VWS V14.00,2013-02-18 17:08:00,
2013-02-18 12:09:00,30.2,2.5,29.48,North,353,10.7,11.4,30,0.00,,---,0.00,VWS V14.00,2013-02-18 17:09:00,
2013-02-18 12:11:00,30.2,2.5,29.48,North,353,9.4,9.4,30,0.00,,---,0.00,VWS V14.00,2013-02-18 17:11:00,
2013-02-18 12:13:00,30.2,2.5,29.48,North,353,5.4,7.4,30,0.00,,---,0.00,VWS V14.00,2013-02-18 17:13:00,
2013-02-18 12:14:00,30.2,2.5,29.48,North,353,11.4,12.1,30,0.00,,---,0.00,VWS V14.00,2013-02-18 17:14:00,
2013-02-18 12:16:00,30.4,2.7,29.48,North,353,6.0,6.0,30,0.00,,---,0.00,VWS V14.00,2013-02-18 17:16:00,
2013-02-18 12:18:00,30.2,2.5,29.48,North,353,9.4,11.4,30,0.00,,---,0.00,VWS V14.00,2013-02-18 17:18:00,
2013-02-18 12:19:00,30.2,2.5,29.48,North,353,9.4,11.4,30,0.00,,---,0.00,VWS V14.00,2013-02-18 17:19:00,
2013-02-18 12:21:00,30.4,2.7,29.48,North,353,6.0,6.0,30,0.00,,---,0.00,VWS V14.00,2013-02-18 17:21:00,
2013-02-18 12:23:00,30.7,3.0,29.48,North,353,4.0,4.0,30,0.00,,---,0.00,VWS V14.00,2013-02-18 17:23:00,
2013-02-18 12:24:00,30.7,1.5,29.48,North,353,8.7,8.7,28,0.00,,---,0.00,VWS V14.00,2013-02-18 17:24:00,
2013-02-18 12:26:00,30.7,1.5,29.48,North,353,6.0,8.1,28,0.00,,---,0.00,VWS V14.00,2013-02-18 17:26:00,
2013-02-18 12:28:00,30.7,1.5,29.48,North,353,10.1,10.1,28,0.00,,---,0.00,VWS V14.00,2013-02-18 17:28:00,
2013-02-18 12:30:00,30.9,1.7,29.48,North,353,9.4,9.4,28,0.00,,---,0.00,VWS V14.00,2013-02-18 17:30:00,
2013-02-18 12:31:00,30.9,1.7,29.48,North,353,8.7,9.4,28,0.00,,---,0.00,VWS V14.00,2013-02-18 17:31:00,
2013-02-18 12:33:00,30.9,1.7,29.48,North,353,5.4,7.4,28,0.00,,---,0.00,VWS V14.00,2013-02-18 17:33:00,
2013-02-18 12:35:00,31.3,2.0,29.45,North,353,4.7,4.7,28,0.00,,---,0.00,VWS V14.00,2013-02-18 17:35:00,
2013-02-18 12:36:00,31.3,2.0,29.45,North,353,4.7,8.1,28,0.00,,---,0.00,VWS V14.00,2013-02-18 17:36:00,
2013-02-18 12:38:00,31.3,2.0,29.45,North,353,6.0,8.1,28,0.00,,---,0.00,VWS V14.00,2013-02-18 17:38:00,
2013-02-18 12:40:00,31.3,2.0,29.45,North,353,4.7,9.4,28,0.00,,---,0.00,VWS V14.00,2013-02-18 17:40:00,
2013-02-18 12:41:00,31.3,2.0,29.45,North,353,4.7,10.7,28,0.00,,---,0.00,VWS V14.00,2013-02-18 17:41:00,
2013-02-18 12:43:00,31.3,2.0,29.45,North,353,4.7,6.0,28,0.00,,---,0.00,VWS V14.00,2013-02-18 17:43:00,
2013-02-18 12:45:00,31.5,2.1,29.45,North,353,5.4,6.0,28,0.00,,---,0.00,VWS V14.00,2013-02-18 17:45:00,
2013-02-18 12:46:00,31.6,2.3,29.45,North,353,4.7,5.4,28,0.00,,---,0.00,VWS V14.00,2013-02-18 17:46:00,
2013-02-18 12:48:00,31.5,2.1,29.45,North,353,8.7,9.4,28,0.00,,---,0.00,VWS V14.00,2013-02-18 17:48:00,
2013-02-18 12:50:00,31.5,2.1,29.45,North,350,6.0,8.1,28,0.00,,---,0.00,VWS V14.00,2013-02-18 17:50:00,
2013-02-18 12:51:00,31.5,2.1,29.45,North,350,6.0,7.4,28,0.00,,---,0.00,VWS V14.00,2013-02-18 17:51:00,
2013-02-18 12:54:00,31.6,2.3,29.45,North,350,4.7,8.1,28,0.00,,---,0.00,VWS V14.00,2013-02-18 17:54:00,
2013-02-18 12:55:00,31.6,2.3,29.45,North,350,8.1,8.7,28,0.00,,---,0.00,VWS V14.00,2013-02-18 17:55:00,
2013-02-18 12:56:00,31.8,2.4,29.45,North,350,7.4,7.4,28,0.00,,---,0.00,VWS V14.00,2013-02-18 17:56:00,
2013-02-18 12:59:00,32.0,2.6,29.45,North,350,8.1,8.1,28,0.00,,---,0.00,VWS V14.00,2013-02-18 17:59:00,
2013-02-18 13:00:00,32.0,0.2,29.45,North,350,5.4,11.4,25,0.00,,---,0.00,VWS V14.00,2013-02-18 18:00:00,
2013-02-18 13:01:00,32.0,0.2,29.45,North,350,7.4,7.4,25,0.00,,---,0.00,VWS V14.00,2013-02-18 18:01:00,
2013-02-18 13:04:00,32.0,0.2,29.45,North,350,8.7,10.1,25,0.00,,---,0.00,VWS V14.00,2013-02-18 18:04:00,
2013-02-18 13:05:00,32.0,0.2,29.45,North,353,4.7,8.1,25,0.00,,---,0.00,VWS V14.00,2013-02-18 18:05:00,
2013-02-18 13:06:00,32.0,0.2,29.45,North,353,4.7,8.1,25,0.00,,---,0.00,VWS V14.00,2013-02-18 18:06:00,
2013-02-18 13:09:00,31.8,2.4,29.45,North,350,8.7,10.1,28,0.00,,---,0.00,VWS V14.00,2013-02-18 18:09:00,
2013-02-18 13:10:00,32.0,2.6,29.45,North,350,4.7,5.4,28,0.00,,---,0.00,VWS V14.00,2013-02-18 18:10:00,
2013-02-18 13:11:00,32.0,2.6,29.45,North,350,4.7,6.0,28,0.00,,---,0.00,VWS V14.00,2013-02-18 18:11:00,
2013-02-18 13:14:00,32.0,2.6,29.45,North,350,8.7,8.7,28,0.00,,---,0.00,VWS V14.00,2013-02-18 18:14:00,
2013-02-18 13:15:00,32.0,0.2,29.45,North,350,8.1,8.1,25,0.00,,---,0.00,VWS V14.00,2013-02-18 18:15:00,
2013-02-18 13:17:00,32.0,2.6,29.45,North,350,5.4,8.1,28,0.00,,---,0.00,VWS V14.00,2013-02-18 18:17:00,
2013-02-18 13:19:00,32.2,0.3,29.45,North,350,5.4,7.4,25,0.00,,---,0.00,VWS V14.00,2013-02-18 18:19:00,
2013-02-18 13:20:00,32.2,2.8,29.45,North,350,5.4,5.4,28,0.00,,---,0.00,VWS V14.00,2013-02-18 18:20:00,
2013-02-18 13:22:00,32.2,0.3,29.45,North,350,8.7,8.7,25,0.00,,---,0.00,VWS V14.00,2013-02-18 18:22:00,
2013-02-18 13:24:00,32.2,0.3,29.45,NNW,348,9.4,9.4,25,0.00,,---,0.00,VWS V14.00,2013-02-18 18:24:00,
2013-02-18 13:26:00,32.2,0.3,29.45,NNW,348,8.1,8.1,25,0.00,,---,0.00,VWS V14.00,2013-02-18 18:26:00,
2013-02-18 13:27:00,32.0,0.2,29.45,NNW,341,11.4,11.4,25,0.00,,---,0.00,VWS V14.00,2013-02-18 18:27:00,
2013-02-18 13:29:00,32.0,2.6,29.45,NNW,344,6.0,8.1,28,0.00,,---,0.00,VWS V14.00,2013-02-18 18:29:00,
2013-02-18 13:31:00,32.2,0.3,29.45,NNW,343,7.4,8.1,25,0.00,,---,0.00,VWS V14.00,2013-02-18 18:31:00,
2013-02-18 13:32:00,32.2,0.3,29.45,NNW,344,5.4,5.4,25,0.00,,---,0.00,VWS V14.00,2013-02-18 18:32:00,
2013-02-18 13:34:00,32.4,0.5,29.45,NNW,348,6.0,8.1,25,0.00,,---,0.00,VWS V14.00,2013-02-18 18:34:00,
2013-02-18 13:36:00,32.2,0.3,29.45,North,0,5.4,12.1,25,0.00,,---,0.00,VWS V14.00,2013-02-18 18:36:00,
2013-02-18 13:37:00,32.4,0.5,29.45,North,0,8.7,8.7,25,0.00,,---,0.00,VWS V14.00,2013-02-18 18:37:00,
2013-02-18 13:39:00,32.2,0.3,29.45,North,0,5.4,8.1,25,0.00,,---,0.00,VWS V14.00,2013-02-18 18:39:00,
2013-02-18 13:41:00,32.2,0.3,29.45,North,0,4.7,4.7,25,0.00,,---,0.00,VWS V14.00,2013-02-18 18:41:00,
2013-02-18 13:42:00,32.4,0.5,29.45,North,0,7.4,7.4,25,0.00,,---,0.00,VWS V14.00,2013-02-18 18:42:00,
2013-02-18 13:44:00,32.4,0.5,29.45,North,0,9.4,9.4,25,0.00,,---,0.00,VWS V14.00,2013-02-18 18:44:00,
2013-02-18 13:46:00,32.4,0.5,29.45,North,0,6.0,8.1,25,0.00,,---,0.00,VWS V14.00,2013-02-18 18:46:00,
2013-02-18 13:47:00,32.4,0.5,29.45,North,0,8.1,8.7,25,0.00,,---,0.00,VWS V14.00,2013-02-18 18:47:00,
2013-02-18 13:50:00,32.5,0.6,29.45,North,0,6.0,9.4,25,0.00,,---,0.00,VWS V14.00,2013-02-18 18:50:00,
2013-02-18 13:51:00,32.4,0.5,29.45,North,0,8.1,8.1,25,0.00,,---,0.00,VWS V14.00,2013-02-18 18:51:00,
2013-02-18 13:52:00,32.5,0.6,29.45,North,0,7.4,7.4,25,0.00,,---,0.00,VWS V14.00,2013-02-18 18:52:00,
2013-02-18 13:55:00,32.4,0.5,29.45,North,0,6.0,7.4,25,0.00,,---,0.00,VWS V14.00,2013-02-18 18:55:00,
2013-02-18 13:56:00,32.5,0.6,29.45,North,0,8.7,8.7,25,0.00,,---,0.00,VWS V14.00,2013-02-18 18:56:00,
2013-02-18 13:57:00,32.4,0.5,29.45,North,0,7.4,8.1,25,0.00,,---,0.00,VWS V14.00,2013-02-18 18:57:00,
2013-02-18 14:00:00,32.4,0.5,29.45,North,0,6.0,8.7,25,0.00,,---,0.00,VWS V14.00,2013-02-18 19:00:00,
2013-02-18 14:01:00,32.4,0.5,29.45,North,0,5.4,6.0,25,0.00,,---,0.00,VWS V14.00,2013-02-18 19:01:00,
2013-02-18 14:02:00,32.4,0.5,29.45,North,0,5.4,5.4,25,0.00,,---,0.00,VWS V14.00,2013-02-18 19:02:00,
2013-02-18 14:06:00,32.4,2.9,29.42,North,0,6.0,6.0,28,0.00,,---,0.00,VWS V14.00,2013-02-18 19:06:00,
2013-02-18 14:07:00,32.4,2.9,29.42,North,0,6.0,6.0,28,0.00,,---,0.00,VWS V14.00,2013-02-18 19:07:00,
2013-02-18 14:11:00,32.5,3.1,29.42,North,0,5.4,7.4,28,0.00,,---,0.00,VWS V14.00,2013-02-18 19:11:00,
2013-02-18 14:12:00,32.5,3.1,29.42,North,0,6.0,8.1,28,0.00,,---,0.00,VWS V14.00,2013-02-18 19:12:00,
2013-02-18 14:16:00,32.7,0.8,29.42,North,0,9.4,9.4,25,0.00,,---,0.00,VWS V14.00,2013-02-18 19:16:00,
2013-02-18 14:18:00,32.7,0.8,29.42,North,0,8.1,8.7,25,0.00,,---,0.00,VWS V14.00,2013-02-18 19:18:00,
2013-02-18 14:21:00,32.9,0.9,29.42,North,0,4.7,6.0,25,0.00,,---,0.00,VWS V14.00,2013-02-18 19:21:00,
2013-02-18 14:23:00,32.9,0.9,29.42,North,0,4.0,6.0,25,0.00,,---,0.00,VWS V14.00,2013-02-18 19:23:00,
2013-02-18 14:26:00,32.9,0.9,29.42,North,357,6.0,7.4,25,0.00,,---,0.00,VWS V14.00,2013-02-18 19:26:00,
2013-02-18 14:28:00,32.7,0.8,29.42,North,5,8.1,8.1,25,0.00,,---,0.00,VWS V14.00,2013-02-18 19:28:00,
2013-02-18 14:31:00,32.7,0.8,29.42,NNE,29,8.7,9.4,25,0.00,,---,0.00,VWS V14.00,2013-02-18 19:31:00,
2013-02-18 14:32:00,32.7,0.8,29.42,NNE,29,8.7,11.4,25,0.00,,---,0.00,VWS V14.00,2013-02-18 19:32:00,
2013-02-18 14:33:00,32.7,0.8,29.42,NNE,29,8.1,9.4,25,0.00,,---,0.00,VWS V14.00,2013-02-18 19:33:00,
2013-02-18 14:36:00,32.9,3.4,29.42,NNE,29,4.0,6.0,28,0.00,,---,0.00,VWS V14.00,2013-02-18 19:36:00,
2013-02-18 14:37:00,33.1,1.1,29.42,NNE,29,5.4,5.4,25,0.00,,---,0.00,VWS V14.00,2013-02-18 19:37:00,
2013-02-18 14:38:00,33.1,1.1,29.42,NNE,29,6.0,7.4,25,0.00,,---,0.00,VWS V14.00,2013-02-18 19:38:00,
2013-02-18 14:41:00,33.3,1.2,29.42,NNE,29,8.7,8.7,25,0.00,,---,0.00,VWS V14.00,2013-02-18 19:41:00,
2013-02-18 14:42:00,33.3,1.2,29.42,NNE,29,9.4,9.4,25,0.00,,---,0.00,VWS V14.00,2013-02-18 19:42:00,
2013-02-18 14:43:00,33.4,1.4,29.42,NNE,29,6.0,8.1,25,0.00,,---,0.00,VWS V14.00,2013-02-18 19:43:00,
2013-02-18 14:46:00,33.8,1.7,29.42,NNE,29,4.0,6.0,25,0.00,,---,0.00,VWS V14.00,2013-02-18 19:46:00,
2013-02-18 14:47:00,34.0,1.9,29.42,NNE,29,4.7,4.7,25,0.00,,---,0.00,VWS V14.00,2013-02-18 19:47:00,
2013-02-18 14:48:00,34.0,1.9,29.42,NNE,29,4.7,5.4,25,0.00,,---,0.00,VWS V14.00,2013-02-18 19:48:00,
2013-02-18 14:51:00,34.0,1.9,29.42,NNE,30,7.4,8.1,25,0.00,,---,0.00,VWS V14.00,2013-02-18 19:51:00,
2013-02-18 14:52:00,34.0,1.9,29.42,NNE,30,3.4,8.1,25,0.00,,---,0.00,VWS V14.00,2013-02-18 19:52:00,
2013-02-18 14:53:00,34.2,2.0,29.42,NNE,30,5.4,5.4,25,0.00,,---,0.00,VWS V14.00,2013-02-18 19:53:00,
2013-02-18 14:56:00,34.0,1.9,29.42,NNE,30,5.4,5.4,25,0.00,,---,0.00,VWS V14.00,2013-02-18 19:56:00,
2013-02-18 14:57:00,33.8,1.7,29.42,NE,50,5.4,5.4,25,0.00,,---,0.00,VWS V14.00,2013-02-18 19:57:00,
2013-02-18 14:58:00,33.6,1.6,29.42,SSE,149,6.0,9.4,25,0.00,,---,0.00,VWS V14.00,2013-02-18 19:58:00,
2013-02-18 15:01:00,33.6,1.6,29.42,SE,138,5.4,5.4,25,0.00,,---,0.00,VWS V14.00,2013-02-18 20:01:00,
2013-02-18 15:02:00,33.6,1.6,29.42,SE,138,7.4,8.1,25,0.00,,---,0.00,VWS V14.00,2013-02-18 20:02:00,
2013-02-18 15:03:00,33.4,1.4,29.42,SE,136,6.0,8.1,25,0.00,,---,0.00,VWS V14.00,2013-02-18 20:03:00,
2013-02-18 15:06:00,33.4,1.4,29.42,SE,145,3.4,5.4,25,0.00,,---,0.00,VWS V14.00,2013-02-18 20:06:00,
2013-02-18 15:07:00,33.3,1.2,29.42,SE,144,5.4,7.4,25,0.00,,---,0.00,VWS V14.00,2013-02-18 20:07:00,
2013-02-18 15:08:00,33.3,1.2,29.42,SE,139,4.7,8.1,25,0.00,,---,0.00,VWS V14.00,2013-02-18 20:08:00,
2013-02-18 15:11:00,33.6,1.6,29.42,SSE,155,4.0,5.4,25,0.00,,---,0.00,VWS V14.00,2013-02-18 20:11:00,
2013-02-18 15:13:00,33.6,1.6,29.42,SSE,159,4.7,4.7,25,0.00,,---,0.00,VWS V14.00,2013-02-18 20:13:00,
2013-02-18 15:16:00,33.8,1.7,29.42,SSE,147,4.7,4.7,25,0.00,,---,0.00,VWS V14.00,2013-02-18 20:16:00,
2013-02-18 15:18:00,34.2,2.0,29.42,South,172,6.0,6.0,25,0.00,,---,0.00,VWS V14.00,2013-02-18 20:18:00,
2013-02-18 15:21:00,34.3,2.2,29.42,SE,136,8.7,8.7,25,0.00,,---,0.00,VWS V14.00,2013-02-18 20:21:00,
2013-02-18 15:23:00,34.5,2.3,29.42,SE,140,6.0,6.0,25,0.00,,---,0.00,VWS V14.00,2013-02-18 20:23:00,
2013-02-18 15:26:00,34.2,2.0,29.42,SE,142,7.4,7.4,25,0.00,,---,0.00,VWS V14.00,2013-02-18 20:26:00,
2013-02-18 15:28:00,34.0,1.9,29.42,ESE,122,4.7,5.4,25,0.00,,---,0.00,VWS V14.00,2013-02-18 20:28:00,
2013-02-18 15:31:00,34.0,1.9,29.42,SE,128,6.0,8.1,25,0.00,,---,0.00,VWS V14.00,2013-02-18 20:31:00,
2013-02-18 15:33:00,34.0,1.9,29.42,South,178,6.0,8.7,25,0.00,,---,0.00,VWS V14.00,2013-02-18 20:33:00,
2013-02-18 15:37:00,33.8,1.7,29.42,SE,145,4.7,8.1,25,0.00,,---,0.00,VWS V14.00,2013-02-18 20:37:00,
2013-02-18 15:38:00,33.8,1.7,29.42,SE,136,4.7,8.1,25,0.00,,---,0.00,VWS V14.00,2013-02-18 20:38:00,
2013-02-18 15:39:00,33.8,1.7,29.42,SE,136,4.7,8.1,25,0.00,,---,0.00,VWS V14.00,2013-02-18 20:39:00,
2013-02-18 15:42:00,33.8,1.7,29.42,SE,127,6.0,9.4,25,0.00,,---,0.00,VWS V14.00,2013-02-18 20:42:00,
2013-02-18 15:44:00,33.8,3.4,29.42,SE,134,5.4,6.0,27,0.00,,---,0.00,VWS V14.00,2013-02-18 20:44:00,
2013-02-18 15:47:00,33.8,3.4,29.42,SE,139,4.7,5.4,27,0.00,,---,0.00,VWS V14.00,2013-02-18 20:47:00,
2013-02-18 15:49:00,34.0,3.5,29.42,ESE,122,4.0,4.0,27,0.00,,---,0.00,VWS V14.00,2013-02-18 20:49:00,
2013-02-18 15:52:00,33.8,3.4,29.42,SE,138,4.7,8.1,27,0.00,,---,0.00,VWS V14.00,2013-02-18 20:52:00,
2013-02-18 15:54:00,33.8,3.4,29.42,SSE,152,4.0,7.4,27,0.00,,---,0.00,VWS V14.00,2013-02-18 20:54:00,
2013-02-18 15:57:00,33.8,3.4,29.42,SE,139,0.0,0.0,27,0.00,,---,0.00,VWS V14.00,2013-02-18 20:57:00,
2013-02-18 15:59:00,33.8,3.4,29.42,SSE,166,4.7,4.7,27,0.00,,---,0.00,VWS V14.00,2013-02-18 20:59:00,
2013-02-18 16:02:00,33.6,4.0,29.42,ESE,117,4.7,5.4,28,0.00,,---,0.00,VWS V14.00,2013-02-18 21:02:00,
2013-02-18 16:04:00,33.6,4.0,29.42,ESE,114,4.0,4.7,28,0.00,,---,0.00,VWS V14.00,2013-02-18 21:04:00,
2013-02-18 16:07:00,33.8,5.7,29.42,ESE,122,4.0,4.0,30,0.00,,---,0.00,VWS V14.00,2013-02-18 21:07:00,
2013-02-18 16:09:00,33.8,5.7,29.42,ESE,122,0.0,3.4,30,0.00,,---,0.00,VWS V14.00,2013-02-18 21:09:00,
2013-02-18 16:12:00,34.0,3.5,29.42,SE,136,5.4,5.4,27,0.00,,---,0.00,VWS V14.00,2013-02-18 21:12:00,
2013-02-18 16:14:00,34.0,3.5,29.42,SE,145,6.0,7.4,27,0.00,,---,0.00,VWS V14.00,2013-02-18 21:14:00,
2013-02-18 16:17:00,34.0,3.5,29.42,SE,136,4.0,5.4,27,0.00,,---,0.00,VWS V14.00,2013-02-18 21:17:00,
2013-02-18 16:19:00,34.0,3.5,29.42,South,175,5.4,5.4,27,0.00,,---,0.00,VWS V14.00,2013-02-18 21:19:00,
2013-02-18 16:22:00,34.2,3.7,29.42,East,86,4.0,4.0,27,0.00,,---,0.00,VWS V14.00,2013-02-18 21:22:00,
2013-02-18 16:24:00,34.2,3.7,29.42,ESE,105,0.0,3.4,27,0.00,,---,0.00,VWS V14.00,2013-02-18 21:24:00,
2013-02-18 16:28:00,34.0,5.8,29.42,ESE,105,3.4,3.4,30,0.00,,---,0.00,VWS V14.00,2013-02-18 21:28:00,
2013-02-18 16:29:00,34.0,5.8,29.42,SE,144,4.7,4.7,30,0.00,,---,0.00,VWS V14.00,2013-02-18 21:29:00,
2013-02-18 16:30:00,34.0,5.8,29.42,SE,144,6.0,6.0,30,0.00,,---,0.00,VWS V14.00,2013-02-18 21:30:00,
2013-02-18 16:33:00,33.8,5.7,29.42,ESE,119,4.0,4.0,30,0.00,,---,0.00,VWS V14.00,2013-02-18 21:33:00,
2013-02-18 16:34:00,33.8,5.7,29.42,ESE,107,4.7,4.7,30,0.00,,---,0.00,VWS V14.00,2013-02-18 21:34:00,
2013-02-18 16:35:00,33.8,5.7,29.42,SSE,149,4.7,4.7,30,0.00,,---,0.00,VWS V14.00,2013-02-18 21:35:00,
2013-02-18 16:38:00,33.8,5.7,29.42,ESE,120,3.4,4.0,30,0.00,,---,0.00,VWS V14.00,2013-02-18 21:38:00,
2013-02-18 16:39:00,33.8,5.7,29.42,ESE,116,4.0,4.0,30,0.00,,---,0.00,VWS V14.00,2013-02-18 21:39:00,
2013-02-18 16:40:00,33.8,5.7,29.42,ESE,116,0.0,0.0,30,0.00,,---,0.00,VWS V14.00,2013-02-18 21:40:00,
2013-02-18 16:43:00,33.8,5.7,29.42,SSE,156,4.0,4.0,30,0.00,,---,0.00,VWS V14.00,2013-02-18 21:43:00,
2013-02-18 16:44:00,33.8,5.7,29.42,ESE,111,4.7,4.7,30,0.00,,---,0.00,VWS V14.00,2013-02-18 21:44:00,
2013-02-18 16:45:00,33.8,5.7,29.42,SE,127,4.0,4.0,30,0.00,,---,0.00,VWS V14.00,2013-02-18 21:45:00,
2013-02-18 16:48:00,33.8,5.7,29.42,SE,125,0.0,5.4,30,0.00,,---,0.00,VWS V14.00,2013-02-18 21:48:00,
2013-02-18 16:49:00,33.8,5.7,29.42,South,171,5.4,7.4,30,0.00,,---,0.00,VWS V14.00,2013-02-18 21:49:00,
2013-02-18 16:51:00,33.8,5.7,29.42,ESE,110,0.0,4.0,30,0.00,,---,0.00,VWS V14.00,2013-02-18 21:51:00,
2013-02-18 16:53:00,33.8,5.7,29.42,ESE,103,0.0,5.4,30,0.00,,---,0.00,VWS V14.00,2013-02-18 21:53:00,
2013-02-18 16:55:00,33.6,5.5,29.42,ESE,102,4.0,4.0,30,0.00,,---,0.00,VWS V14.00,2013-02-18 21:55:00,
2013-02-18 16:56:00,33.6,5.5,29.42,ESE,114,4.0,4.7,30,0.00,,---,0.00,VWS V14.00,2013-02-18 21:56:00,
2013-02-18 16:58:00,33.6,5.5,29.42,SE,133,4.7,4.7,30,0.00,,---,0.00,VWS V14.00,2013-02-18 21:58:00,
2013-02-18 17:00:00,33.6,5.5,29.42,SE,141,4.0,4.7,30,0.00,,---,0.00,VWS V14.00,2013-02-18 22:00:00,
2013-02-18 17:01:00,33.6,5.5,29.42,SE,136,4.0,4.0,30,0.00,,---,0.00,VWS V14.00,2013-02-18 22:01:00,
2013-02-18 17:03:00,33.8,5.7,29.42,SE,143,3.4,4.0,30,0.00,,---,0.00,VWS V14.00,2013-02-18 22:03:00,
2013-02-18 17:05:00,33.8,5.7,29.42,SE,143,0.0,3.4,30,0.00,,---,0.00,VWS V14.00,2013-02-18 22:05:00,
2013-02-18 17:06:00,33.6,5.5,29.42,SSE,153,4.7,5.4,30,0.00,,---,0.00,VWS V14.00,2013-02-18 22:06:00,
2013-02-18 17:08:00,33.6,5.5,29.42,ESE,109,3.4,4.0,30,0.00,,---,0.00,VWS V14.00,2013-02-18 22:08:00,
2013-02-18 17:10:00,33.6,5.5,29.42,East,99,3.4,4.7,30,0.00,,---,0.00,VWS V14.00,2013-02-18 22:10:00,
2013-02-18 17:11:00,33.6,5.5,29.42,SE,127,4.7,7.4,30,0.00,,---,0.00,VWS V14.00,2013-02-18 22:11:00,
2013-02-18 17:14:00,33.6,5.5,29.42,ESE,119,4.7,5.4,30,0.00,,---,0.00,VWS V14.00,2013-02-18 22:14:00,
2013-02-18 17:15:00,33.6,5.5,29.42,SSE,158,6.0,6.0,30,0.00,,---,0.00,VWS V14.00,2013-02-18 22:15:00,
2013-02-18 17:16:00,33.6,5.5,29.42,SSE,166,0.0,5.4,30,0.00,,---,0.00,VWS V14.00,2013-02-18 22:16:00,
2013-02-18 17:19:00,33.4,6.1,29.42,SSE,153,5.4,5.4,31,0.00,,---,0.00,VWS V14.00,2013-02-18 22:19:00,
2013-02-18 17:20:00,33.4,6.1,29.42,SSE,168,3.4,5.4,31,0.00,,---,0.00,VWS V14.00,2013-02-18 22:20:00,
2013-02-18 17:21:00,33.4,6.1,29.42,South,169,3.4,5.4,31,0.00,,---,0.00,VWS V14.00,2013-02-18 22:21:00,
2013-02-18 17:24:00,33.4,6.1,29.42,SSE,148,4.7,6.0,31,0.00,,---,0.00,VWS V14.00,2013-02-18 22:24:00,
2013-02-18 17:25:00,33.4,6.1,29.42,SE,127,3.4,3.4,31,0.00,,---,0.00,VWS V14.00,2013-02-18 22:25:00,
2013-02-18 17:26:00,33.4,6.1,29.42,SSE,147,3.4,5.4,31,0.00,,---,0.00,VWS V14.00,2013-02-18 22:26:00,
2013-02-18 17:29:00,33.4,6.1,29.42,SE,139,3.4,4.7,31,0.00,,---,0.00,VWS V14.00,2013-02-18 22:29:00,
2013-02-18 17:30:00,33.4,6.1,29.42,SE,138,0.0,3.4,31,0.00,,---,0.00,VWS V14.00,2013-02-18 22:30:00,
2013-02-18 17:31:00,33.4,6.1,29.42,ESE,117,4.7,4.7,31,0.00,,---,0.00,VWS V14.00,2013-02-18 22:31:00,
2013-02-18 17:34:00,33.4,6.1,29.42,SE,142,6.0,6.0,31,0.00,,---,0.00,VWS V14.00,2013-02-18 22:34:00,
2013-02-18 17:35:00,33.4,6.1,29.42,SE,138,5.4,5.4,31,0.00,,---,0.00,VWS V14.00,2013-02-18 22:35:00,
2013-02-18 17:36:00,33.4,6.1,29.42,SE,146,4.0,5.4,31,0.00,,---,0.00,VWS V14.00,2013-02-18 22:36:00,
2013-02-18 17:39:00,33.4,6.1,29.42,SE,143,4.0,4.0,31,0.00,,---,0.00,VWS V14.00,2013-02-18 22:39:00,
2013-02-18 17:40:00,33.4,6.1,29.42,SE,134,0.0,4.7,31,0.00,,---,0.00,VWS V14.00,2013-02-18 22:40:00,
2013-02-18 17:41:00,33.4,6.1,29.42,SE,132,4.7,4.7,31,0.00,,---,0.00,VWS V14.00,2013-02-18 22:41:00,
2013-02-18 17:44:00,33.4,6.1,29.42,ESE,111,3.4,4.0,31,0.00,,---,0.00,VWS V14.00,2013-02-18 22:44:00,
2013-02-18 17:45:00,33.4,6.1,29.42,ESE,111,4.0,4.0,31,0.00,,---,0.00,VWS V14.00,2013-02-18 22:45:00,
2013-02-18 17:47:00,33.3,5.9,29.42,SE,138,5.4,6.0,31,0.00,,---,0.00,VWS V14.00,2013-02-18 22:47:00,
2013-02-18 17:49:00,33.3,5.9,29.42,SSE,149,3.4,3.4,31,0.00,,---,0.00,VWS V14.00,2013-02-18 22:49:00,
2013-02-18 17:50:00,33.3,5.9,29.42,SSE,149,0.0,5.4,31,0.00,,---,0.00,VWS V14.00,2013-02-18 22:50:00,
2013-02-18 17:52:00,33.3,5.9,29.42,SSE,148,6.0,6.0,31,0.00,,---,0.00,VWS V14.00,2013-02-18 22:52:00,
2013-02-18 17:54:00,33.3,5.9,29.42,SSE,147,3.4,4.0,31,0.00,,---,0.00,VWS V14.00,2013-02-18 22:54:00,
2013-02-18 17:55:00,33.1,5.8,29.42,SSE,147,4.0,4.0,31,0.00,,---,0.00,VWS V14.00,2013-02-18 22:55:00,
2013-02-18 17:57:00,33.1,5.8,29.42,SSE,147,3.4,4.0,31,0.00,,---,0.00,VWS V14.00,2013-02-18 22:57:00,
2013-02-18 17:59:00,33.1,6.4,29.42,SE,146,3.4,4.0,32,0.00,,---,0.00,VWS V14.00,2013-02-18 22:59:00,
2013-02-18 18:01:00,33.1,6.4,29.42,SE,146,0.0,4.0,32,0.00,,---,0.00,VWS V14.00,2013-02-18 23:01:00,
2013-02-18 18:02:00,33.1,6.4,29.42,SSE,147,3.4,3.4,32,0.00,,---,0.00,VWS V14.00,2013-02-18 23:02:00,
2013-02-18 18:04:00,32.9,6.3,29.42,SE,146,3.4,4.0,32,0.00,,---,0.00,VWS V14.00,2013-02-18 23:04:00,
2013-02-18 18:06:00,32.9,7.0,29.42,SE,146,3.4,4.0,33,0.00,,---,0.00,VWS V14.00,2013-02-18 23:06:00,
2013-02-18 18:07:00,32.9,7.6,29.42,SE,146,0.0,3.4,34,0.00,,---,0.00,VWS V14.00,2013-02-18 23:07:00,
2013-02-18 18:09:00,32.7,7.5,29.42,SE,146,3.4,4.0,34,0.00,,---,0.00,VWS V14.00,2013-02-18 23:09:00,
2013-02-18 18:11:00,32.7,7.5,29.42,SE,146,0.0,0.0,34,0.00,,---,0.00,VWS V14.00,2013-02-18 23:11:00,
2013-02-18 18:12:00,32.7,8.1,29.42,SE,146,3.4,3.4,35,0.00,,---,0.00,VWS V14.00,2013-02-18 23:12:00,
2013-02-18 18:14:00,32.5,8.6,29.42,SE,146,3.4,3.4,36,0.00,,---,0.00,VWS V14.00,2013-02-18 23:14:00,
2013-02-18 18:16:00,32.5,8.6,29.42,SE,146,3.4,3.4,36,0.00,,---,0.00,VWS V14.00,2013-02-18 23:16:00,
2013-02-18 18:18:00,32.5,8.6,29.42,SE,146,0.0,0.0,36,0.00,,---,0.00,VWS V14.00,2013-02-18 23:18:00,
2013-02-18 18:19:00,32.5,9.2,29.42,SE,146,0.0,0.0,37,0.00,,---,0.00,VWS V14.00,2013-02-18 23:19:00,
2013-02-18 18:21:00,32.4,9.0,29.42,SE,146,0.0,0.0,37,0.00,,---,0.00,VWS V14.00,2013-02-18 23:21:00,
2013-02-18 18:23:00,32.4,9.0,29.42,SE,146,0.0,0.0,37,0.00,,---,0.00,VWS V14.00,2013-02-18 23:23:00,
2013-02-18 18:25:00,32.2,8.9,29.42,SE,146,0.0,0.0,37,0.00,,---,0.00,VWS V14.00,2013-02-18 23:25:00,
2013-02-18 18:26:00,32.2,9.4,29.42,SE,146,0.0,0.0,38,0.00,,---,0.00,VWS V14.00,2013-02-18 23:26:00,
2013-02-18 18:28:00,32.2,10.0,29.42,SE,146,0.0,0.0,39,0.00,,---,0.00,VWS V14.00,2013-02-18 23:28:00,
2013-02-18 18:30:00,32.2,10.0,29.42,SE,146,0.0,0.0,39,0.00,,---,0.00,VWS V14.00,2013-02-18 23:30:00,
2013-02-18 18:31:00,32.2,10.6,29.42,SE,146,0.0,0.0,40,0.00,,---,0.00,VWS V14.00,2013-02-18 23:31:00,
2013-02-18 18:33:00,32.2,10.6,29.42,SE,146,4.0,4.0,40,0.00,,---,0.00,VWS V14.00,2013-02-18 23:33:00,
2013-02-18 18:35:00,32.0,10.4,29.42,SE,146,0.0,0.0,40,0.00,,---,0.00,VWS V14.00,2013-02-18 23:35:00,
2013-02-18 18:37:00,32.0,11.0,29.42,SE,146,0.0,3.4,41,0.00,,---,0.00,VWS V14.00,2013-02-18 23:37:00,
2013-02-18 18:38:00,32.0,11.0,29.42,SE,146,0.0,0.0,41,0.00,,---,0.00,VWS V14.00,2013-02-18 23:38:00,
2013-02-18 18:40:00,32.0,11.0,29.42,SE,146,0.0,0.0,41,0.00,,---,0.00,VWS V14.00,2013-02-18 23:40:00,
2013-02-18 18:42:00,32.0,11.0,29.42,SE,146,0.0,0.0,41,0.00,,---,0.00,VWS V14.00,2013-02-18 23:42:00,
2013-02-18 18:43:00,31.8,10.8,29.42,SE,146,0.0,0.0,41,0.00,,---,0.00,VWS V14.00,2013-02-18 23:43:00,
2013-02-18 18:45:00,31.8,10.8,29.42,SE,146,0.0,0.0,41,0.00,,---,0.00,VWS V14.00,2013-02-18 23:45:00,
2013-02-18 18:47:00,31.8,10.8,29.42,SE,146,0.0,0.0,41,0.00,,---,0.00,VWS V14.00,2013-02-18 23:47:00,
2013-02-18 18:48:00,31.8,10.8,29.42,SE,146,0.0,0.0,41,0.00,,---,0.00,VWS V14.00,2013-02-18 23:48:00,
2013-02-18 18:50:00,31.8,10.8,29.42,SE,146,0.0,0.0,41,0.00,,---,0.00,VWS V14.00,2013-02-18 23:50:00,
2013-02-18 18:52:00,31.8,10.8,29.42,SE,146,0.0,0.0,41,0.00,,---,0.00,VWS V14.00,2013-02-18 23:52:00,
2013-02-18 18:53:00,31.8,10.8,29.42,SE,146,0.0,3.4,41,0.00,,---,0.00,VWS V14.00,2013-02-18 23:53:00,
2013-02-18 18:55:00,31.6,10.6,29.42,SE,146,0.0,0.0,41,0.00,,---,0.00,VWS V14.00,2013-02-18 23:55:00,
2013-02-18 18:57:00,31.6,10.6,29.42,SE,146,0.0,0.0,41,0.00,,---,0.00,VWS V14.00,2013-02-18 23:57:00,
2013-02-18 18:58:00,31.6,10.6,29.42,SE,146,0.0,0.0,41,0.00,,---,0.00,VWS V14.00,2013-02-18 23:58:00,
2013-02-18 19:00:00,31.6,10.6,29.42,SE,146,0.0,0.0,41,0.00,,---,0.00,VWS V14.00,2013-02-19 00:00:00,
2013-02-18 19:02:00,31.6,10.6,29.42,SE,146,0.0,0.0,41,0.00,,---,0.00,VWS V14.00,2013-02-19 00:02:00,
2013-02-18 19:03:00,31.5,10.5,29.42,SE,146,0.0,0.0,41,0.00,,---,0.00,VWS V14.00,2013-02-19 00:03:00,
2013-02-18 19:05:00,31.5,10.5,29.42,SE,146,0.0,0.0,41,0.00,,---,0.00,VWS V14.00,2013-02-19 00:05:00,
2013-02-18 19:07:00,31.5,10.5,29.42,SE,146,0.0,0.0,41,0.00,,---,0.00,VWS V14.00,2013-02-19 00:07:00,
2013-02-18 19:08:00,31.5,10.5,29.42,SE,146,0.0,0.0,41,0.00,,---,0.00,VWS V14.00,2013-02-19 00:08:00,
2013-02-18 19:10:00,31.3,10.3,29.42,SE,146,0.0,0.0,41,0.00,,---,0.00,VWS V14.00,2013-02-19 00:10:00,
2013-02-18 19:12:00,31.3,10.3,29.42,SE,146,0.0,0.0,41,0.00,,---,0.00,VWS V14.00,2013-02-19 00:12:00,
2013-02-18 19:14:00,31.3,10.3,29.42,SE,146,0.0,0.0,41,0.00,,---,0.00,VWS V14.00,2013-02-19 00:14:00,
2013-02-18 19:15:00,31.3,10.9,29.42,SE,146,0.0,0.0,42,0.00,,---,0.00,VWS V14.00,2013-02-19 00:15:00,
2013-02-18 19:17:00,31.3,11.4,29.42,SE,146,0.0,0.0,43,0.00,,---,0.00,VWS V14.00,2013-02-19 00:17:00,
2013-02-18 19:19:00,31.3,11.4,29.42,SE,146,0.0,0.0,43,0.00,,---,0.00,VWS V14.00,2013-02-19 00:19:00,
2013-02-18 19:20:00,31.1,11.2,29.42,SE,146,0.0,0.0,43,0.00,,---,0.00,VWS V14.00,2013-02-19 00:20:00,
2013-02-18 19:22:00,31.1,11.2,29.42,SE,146,0.0,0.0,43,0.00,,---,0.00,VWS V14.00,2013-02-19 00:22:00,
2013-02-18 19:24:00,31.1,11.2,29.42,SE,146,0.0,0.0,43,0.00,,---,0.00,VWS V14.00,2013-02-19 00:24:00,
2013-02-18 19:25:00,31.1,11.2,29.42,SE,146,0.0,0.0,43,0.00,,---,0.00,VWS V14.00,2013-02-19 00:25:00,
2013-02-18 19:28:00,31.3,11.4,29.42,SE,146,0.0,0.0,43,0.00,,---,0.00,VWS V14.00,2013-02-19 00:28:00,
2013-02-18 19:29:00,31.3,11.4,29.42,SE,146,0.0,0.0,43,0.00,,---,0.00,VWS V14.00,2013-02-19 00:29:00,
2013-02-18 19:30:00,31.3,11.4,29.42,SE,146,0.0,0.0,43,0.00,,---,0.00,VWS V14.00,2013-02-19 00:30:00,
2013-02-18 19:33:00,31.3,10.9,29.42,SE,146,0.0,0.0,42,0.00,,---,0.00,VWS V14.00,2013-02-19 00:33:00,
2013-02-18 19:34:00,31.3,10.9,29.42,SE,146,0.0,0.0,42,0.00,,---,0.00,VWS V14.00,2013-02-19 00:34:00,
2013-02-18 19:35:00,31.3,10.9,29.42,SE,146,0.0,0.0,42,0.00,,---,0.00,VWS V14.00,2013-02-19 00:35:00,
2013-02-18 19:38:00,31.1,10.7,29.42,SE,146,0.0,0.0,42,0.00,,---,0.00,VWS V14.00,2013-02-19 00:38:00,
2013-02-18 19:39:00,31.1,10.7,29.42,SE,146,0.0,0.0,42,0.00,,---,0.00,VWS V14.00,2013-02-19 00:39:00,
2013-02-18 19:40:00,31.1,11.2,29.42,SE,146,0.0,0.0,43,0.00,,---,0.00,VWS V14.00,2013-02-19 00:40:00,
2013-02-18 19:43:00,31.1,11.2,29.42,SE,146,0.0,0.0,43,0.00,,---,0.00,VWS V14.00,2013-02-19 00:43:00,
2013-02-18 19:44:00,31.1,11.2,29.42,SE,146,0.0,0.0,43,0.00,,---,0.00,VWS V14.00,2013-02-19 00:44:00,
2013-02-18 19:46:00,31.1,11.2,29.42,SE,146,0.0,0.0,43,0.00,,---,0.00,VWS V14.00,2013-02-19 00:46:00,
2013-02-18 19:48:00,31.1,11.2,29.42,SE,146,0.0,0.0,43,0.00,,---,0.00,VWS V14.00,2013-02-19 00:48:00,
2013-02-18 19:49:00,31.1,11.2,29.42,SE,146,0.0,0.0,43,0.00,,---,0.00,VWS V14.00,2013-02-19 00:49:00,
2013-02-18 19:51:00,31.1,11.2,29.42,SE,146,0.0,0.0,43,0.00,,---,0.00,VWS V14.00,2013-02-19 00:51:00,
2013-02-18 19:53:00,31.1,11.2,29.42,SE,146,0.0,0.0,43,0.00,,---,0.00,VWS V14.00,2013-02-19 00:53:00,
2013-02-18 19:54:00,31.1,11.2,29.42,SE,146,0.0,0.0,43,0.00,,---,0.00,VWS V14.00,2013-02-19 00:54:00,
2013-02-18 19:56:00,31.1,11.2,29.42,SE,146,0.0,0.0,43,0.00,,---,0.00,VWS V14.00,2013-02-19 00:56:00,
2013-02-18 19:58:00,31.1,11.8,29.42,SE,146,0.0,0.0,44,0.00,,---,0.00,VWS V14.00,2013-02-19 00:58:00,
2013-02-18 19:59:00,31.1,11.8,29.42,SE,146,0.0,0.0,44,0.00,,---,0.00,VWS V14.00,2013-02-19 00:59:00,
2013-02-18 20:01:00,31.1,11.8,29.42,SE,146,0.0,0.0,44,0.00,,---,0.00,VWS V14.00,2013-02-19 01:01:00,
2013-02-18 20:03:00,31.1,12.2,29.42,SE,146,0.0,0.0,45,0.00,,---,0.00,VWS V14.00,2013-02-19 01:03:00,
2013-02-18 20:04:00,31.1,12.2,29.42,SE,146,0.0,0.0,45,0.00,,---,0.00,VWS V14.00,2013-02-19 01:04:00,
2013-02-18 20:06:00,31.1,12.2,29.42,SE,146,0.0,0.0,45,0.00,,---,0.00,VWS V14.00,2013-02-19 01:06:00,
2013-02-18 20:08:00,31.1,12.2,29.42,SE,146,0.0,0.0,45,0.00,,---,0.00,VWS V14.00,2013-02-19 01:08:00,
2013-02-18 20:09:00,31.1,12.2,29.42,SE,146,0.0,0.0,45,0.00,,---,0.00,VWS V14.00,2013-02-19 01:09:00,
2013-02-18 20:11:00,31.1,12.2,29.42,SE,146,0.0,0.0,45,0.00,,---,0.00,VWS V14.00,2013-02-19 01:11:00,
2013-02-18 20:13:00,31.1,12.2,29.42,SE,146,0.0,0.0,45,0.00,,---,0.00,VWS V14.00,2013-02-19 01:13:00,
2013-02-18 20:14:00,31.1,12.8,29.42,SE,146,0.0,0.0,46,0.00,,---,0.00,VWS V14.00,2013-02-19 01:14:00,
2013-02-18 20:16:00,31.1,12.8,29.42,SE,146,0.0,0.0,46,0.00,,---,0.00,VWS V14.00,2013-02-19 01:16:00,
2013-02-18 20:18:00,31.1,12.2,29.42,SE,146,0.0,0.0,45,0.00,,---,0.00,VWS V14.00,2013-02-19 01:18:00,
2013-02-18 20:19:00,31.1,12.2,29.42,SE,146,0.0,0.0,45,0.00,,---,0.00,VWS V14.00,2013-02-19 01:19:00,
2013-02-18 20:21:00,31.1,12.2,29.42,SE,146,0.0,0.0,45,0.00,,---,0.00,VWS V14.00,2013-02-19 01:21:00,
2013-02-18 20:23:00,31.1,12.2,29.42,SE,146,0.0,0.0,45,0.00,,---,0.00,VWS V14.00,2013-02-19 01:23:00,
2013-02-18 20:24:00,31.1,12.2,29.42,SE,146,0.0,0.0,45,0.00,,---,0.00,VWS V14.00,2013-02-19 01:24:00,
2013-02-18 20:26:00,31.1,12.2,29.42,SE,146,0.0,0.0,45,0.00,,---,0.00,VWS V14.00,2013-02-19 01:26:00,
2013-02-18 20:28:00,31.1,12.2,29.42,SE,146,0.0,0.0,45,0.00,,---,0.00,VWS V14.00,2013-02-19 01:28:00,
2013-02-18 20:29:00,31.1,12.2,29.42,SE,146,0.0,0.0,45,0.00,,---,0.00,VWS V14.00,2013-02-19 01:29:00,
2013-02-18 20:31:00,31.1,12.2,29.42,SE,146,0.0,0.0,45,0.00,,---,0.00,VWS V14.00,2013-02-19 01:31:00,
2013-02-18 20:33:00,31.1,12.2,29.42,SE,146,0.0,0.0,45,0.00,,---,0.00,VWS V14.00,2013-02-19 01:33:00,
2013-02-18 20:35:00,31.1,12.2,29.42,SE,146,0.0,0.0,45,0.00,,---,0.00,VWS V14.00,2013-02-19 01:35:00,
2013-02-18 20:36:00,31.1,12.2,29.39,SE,146,0.0,0.0,45,0.00,,---,0.00,VWS V14.00,2013-02-19 01:36:00,
2013-02-18 20:38:00,31.1,12.2,29.39,SE,146,0.0,0.0,45,0.00,,---,0.00,VWS V14.00,2013-02-19 01:38:00,
2013-02-18 20:40:00,30.9,12.1,29.39,SE,146,0.0,0.0,45,0.00,,---,0.00,VWS V14.00,2013-02-19 01:40:00,
2013-02-18 20:41:00,30.9,12.1,29.39,SE,146,0.0,0.0,45,0.00,,---,0.00,VWS V14.00,2013-02-19 01:41:00,
2013-02-18 20:43:00,30.9,12.1,29.39,SE,146,0.0,0.0,45,0.00,,---,0.00,VWS V14.00,2013-02-19 01:43:00,
2013-02-18 20:45:00,30.9,12.1,29.39,SE,146,0.0,0.0,45,0.00,,---,0.00,VWS V14.00,2013-02-19 01:45:00,
2013-02-18 20:47:00,30.9,12.1,29.39,SE,146,0.0,0.0,45,0.00,,---,0.00,VWS V14.00,2013-02-19 01:47:00,
2013-02-18 20:48:00,30.9,12.1,29.39,SE,146,0.0,0.0,45,0.00,,---,0.00,VWS V14.00,2013-02-19 01:48:00,
2013-02-18 20:50:00,30.9,12.1,29.39,SE,146,0.0,0.0,45,0.00,,---,0.00,VWS V14.00,2013-02-19 01:50:00,
2013-02-18 20:52:00,30.9,12.1,29.39,SE,146,0.0,0.0,45,0.00,,---,0.00,VWS V14.00,2013-02-19 01:52:00,
2013-02-18 20:53:00,30.9,11.6,29.39,SE,146,0.0,0.0,44,0.00,,---,0.00,VWS V14.00,2013-02-19 01:53:00,
2013-02-18 20:55:00,30.9,12.1,29.39,SE,146,0.0,0.0,45,0.00,,---,0.00,VWS V14.00,2013-02-19 01:55:00,
2013-02-18 20:57:00,30.9,12.1,29.39,SE,146,0.0,0.0,45,0.00,,---,0.00,VWS V14.00,2013-02-19 01:57:00,
2013-02-18 20:58:00,30.9,12.1,29.39,SE,146,0.0,0.0,45,0.00,,---,0.00,VWS V14.00,2013-02-19 01:58:00,
2013-02-18 21:00:00,30.9,12.1,29.39,SE,146,0.0,0.0,45,0.00,,---,0.00,VWS V14.00,2013-02-19 02:00:00,
2013-02-18 21:02:00,30.9,12.1,29.39,SE,146,0.0,0.0,45,0.00,,---,0.00,VWS V14.00,2013-02-19 02:02:00,
2013-02-18 21:03:00,30.9,12.1,29.39,SE,146,0.0,0.0,45,0.00,,---,0.00,VWS V14.00,2013-02-19 02:03:00,
2013-02-18 21:05:00,30.7,11.9,29.39,SE,146,0.0,0.0,45,0.00,,---,0.00,VWS V14.00,2013-02-19 02:05:00,
2013-02-18 21:07:00,30.7,11.9,29.39,SE,146,0.0,0.0,45,0.00,,---,0.00,VWS V14.00,2013-02-19 02:07:00,
2013-02-18 21:08:00,30.7,11.9,29.39,SE,146,0.0,0.0,45,0.00,,---,0.00,VWS V14.00,2013-02-19 02:08:00,
2013-02-18 21:10:00,30.7,11.9,29.39,SE,146,0.0,0.0,45,0.00,,---,0.00,VWS V14.00,2013-02-19 02:10:00,
2013-02-18 21:12:00,30.7,12.4,29.39,SE,146,0.0,0.0,46,0.00,,---,0.00,VWS V14.00,2013-02-19 02:12:00,
2013-02-18 21:13:00,30.7,12.4,29.39,SE,146,0.0,0.0,46,0.00,,---,0.00,VWS V14.00,2013-02-19 02:13:00,
2013-02-18 21:15:00,30.7,12.9,29.39,SE,146,0.0,0.0,47,0.00,,---,0.00,VWS V14.00,2013-02-19 02:15:00,
2013-02-18 21:18:00,30.7,13.4,29.39,SE,146,0.0,0.0,48,0.00,,---,0.00,VWS V14.00,2013-02-19 02:18:00,
2013-02-18 21:21:00,30.7,13.9,29.39,SE,146,0.0,0.0,49,0.00,,---,0.00,VWS V14.00,2013-02-19 02:21:00,
2013-02-18 21:23:00,30.7,14.8,29.39,SE,146,0.0,0.0,51,0.00,,---,0.00,VWS V14.00,2013-02-19 02:23:00,
2013-02-18 21:26:00,30.7,15.2,29.39,SE,146,0.0,0.0,52,0.00,,---,0.00,VWS V14.00,2013-02-19 02:26:00,
2013-02-18 21:28:00,30.7,15.2,29.39,SE,146,0.0,0.0,52,0.00,,---,0.00,VWS V14.00,2013-02-19 02:28:00,
2013-02-18 21:31:00,30.9,15.8,29.39,SE,146,0.0,0.0,53,0.00,,---,0.00,VWS V14.00,2013-02-19 02:31:00,
2013-02-18 21:33:00,30.9,16.2,29.39,SE,146,0.0,0.0,54,0.00,,---,0.00,VWS V14.00,2013-02-19 02:33:00,
2013-02-18 21:34:00,30.9,16.7,29.39,SE,146,0.0,0.0,55,0.00,,---,0.00,VWS V14.00,2013-02-19 02:34:00,
2013-02-18 21:36:00,31.1,18.1,29.39,SE,146,3.4,4.0,58,0.00,,---,0.00,VWS V14.00,2013-02-19 02:36:00,
2013-02-18 21:38:00,31.1,18.9,29.39,SE,146,4.0,4.7,60,0.00,,---,0.00,VWS V14.00,2013-02-19 02:38:00,
2013-02-18 21:39:00,31.1,18.9,29.39,SE,146,4.7,4.7,60,0.00,,---,0.00,VWS V14.00,2013-02-19 02:39:00,
2013-02-18 21:41:00,31.1,19.6,29.39,SE,146,4.0,4.0,62,0.00,,---,0.00,VWS V14.00,2013-02-19 02:41:00,
2013-02-18 21:43:00,31.1,19.6,29.39,SE,146,5.4,5.4,62,0.00,,---,0.00,VWS V14.00,2013-02-19 02:43:00,
2013-02-18 21:44:00,31.1,19.6,29.39,SE,146,4.0,5.4,62,0.00,,---,0.00,VWS V14.00,2013-02-19 02:44:00,
2013-02-18 21:46:00,31.1,20.0,29.39,SE,146,3.4,4.0,63,0.00,,---,0.00,VWS V14.00,2013-02-19 02:46:00,
2013-02-18 21:48:00,30.9,19.8,29.39,SE,146,4.0,4.0,63,0.00,,---,0.00,VWS V14.00,2013-02-19 02:48:00,
2013-02-18 21:49:00,30.9,19.8,29.39,SE,146,5.4,5.4,63,0.00,,---,0.00,VWS V14.00,2013-02-19 02:49:00,
2013-02-18 21:51:00,30.9,19.8,29.39,SE,146,4.0,5.4,63,0.00,,---,0.00,VWS V14.00,2013-02-19 02:51:00,
2013-02-18 21:53:00,30.9,19.8,29.39,SE,146,4.7,4.7,63,0.00,,---,0.00,VWS V14.00,2013-02-19 02:53:00,
2013-02-18 21:54:00,30.9,19.8,29.39,SE,146,4.7,4.7,63,0.00,,---,0.00,VWS V14.00,2013-02-19 02:54:00,
2013-02-18 21:56:00,30.7,19.6,29.39,SE,146,3.4,4.7,63,0.00,,---,0.00,VWS V14.00,2013-02-19 02:56:00,
2013-02-18 21:58:00,30.7,19.3,29.39,SE,146,5.4,6.0,62,0.00,,---,0.00,VWS V14.00,2013-02-19 02:58:00,
2013-02-18 21:59:00,30.7,19.3,29.39,SE,146,5.4,6.0,62,0.00,,---,0.00,VWS V14.00,2013-02-19 02:59:00,
2013-02-18 22:01:00,30.7,18.9,29.39,SE,146,5.4,5.4,61,0.00,,---,0.00,VWS V14.00,2013-02-19 03:01:00,
2013-02-18 22:04:00,30.7,18.9,29.39,SE,146,4.0,6.0,61,0.00,,---,0.00,VWS V14.00,2013-02-19 03:04:00,
2013-02-18 22:06:00,30.6,18.3,29.39,SE,146,4.0,4.7,60,0.00,,---,0.00,VWS V14.00,2013-02-19 03:06:00,
2013-02-18 22:09:00,30.6,18.3,29.39,SE,146,4.0,5.4,60,0.00,,---,0.00,VWS V14.00,2013-02-19 03:09:00,
2013-02-18 22:12:00,30.6,18.3,29.39,SE,146,5.4,6.7,60,0.00,,---,0.00,VWS V14.00,2013-02-19 03:12:00,
2013-02-18 22:14:00,30.6,18.3,29.39,SE,145,4.7,5.4,60,0.00,,---,0.00,VWS V14.00,2013-02-19 03:14:00,
2013-02-18 22:17:00,30.6,18.3,29.39,SE,145,5.4,5.4,60,0.00,,---,0.00,VWS V14.00,2013-02-19 03:17:00,
2013-02-18 22:19:00,30.6,18.3,29.39,SE,145,5.4,5.4,60,0.00,,---,0.00,VWS V14.00,2013-02-19 03:19:00,
2013-02-18 22:22:00,30.6,18.3,29.36,SE,145,3.4,5.4,60,0.00,,---,0.00,VWS V14.00,2013-02-19 03:22:00,
2013-02-18 22:24:00,30.6,18.3,29.36,SE,145,4.0,5.4,60,0.00,,---,0.00,VWS V14.00,2013-02-19 03:24:00,
2013-02-18 22:27:00,30.4,18.2,29.36,SE,145,5.4,5.4,60,0.00,,---,0.00,VWS V14.00,2013-02-19 03:27:00,
2013-02-18 22:29:00,30.4,17.8,29.36,SE,145,8.7,8.7,59,0.00,,---,0.00,VWS V14.00,2013-02-19 03:29:00,
2013-02-18 22:32:00,30.4,17.4,29.36,SE,144,4.0,5.4,58,0.00,,---,0.00,VWS V14.00,2013-02-19 03:32:00,
2013-02-18 22:34:00,30.4,17.0,29.36,SE,144,3.4,6.0,57,0.00,,---,0.00,VWS V14.00,2013-02-19 03:34:00,
2013-02-18 22:37:00,30.2,16.4,29.36,SE,143,9.4,9.4,56,0.00,,---,0.00,VWS V14.00,2013-02-19 03:37:00,
2013-02-18 22:39:00,30.2,16.0,29.36,SE,142,8.7,8.7,55,0.00,,---,0.00,VWS V14.00,2013-02-19 03:39:00,
2013-02-18 22:40:00,30.2,15.6,29.36,SE,140,8.1,8.7,54,0.00,,---,0.00,VWS V14.00,2013-02-19 03:40:00,
2013-02-18 22:42:00,29.8,13.9,29.36,SE,127,4.7,10.1,51,0.00,,---,0.00,VWS V14.00,2013-02-19 03:42:00,
2013-02-18 22:44:00,29.7,11.9,29.36,SE,127,8.7,8.7,47,0.00,,---,0.00,VWS V14.00,2013-02-19 03:44:00,
2013-02-18 22:45:00,29.7,11.9,29.36,SE,127,6.0,8.7,47,0.00,,---,0.00,VWS V14.00,2013-02-19 03:45:00,
2013-02-18 22:47:00,29.5,10.8,29.36,SE,127,8.7,8.7,45,0.00,,---,0.00,VWS V14.00,2013-02-19 03:47:00,
2013-02-18 22:49:00,29.5,10.8,29.36,SE,127,8.7,8.7,45,0.00,,---,0.00,VWS V14.00,2013-02-19 03:49:00,
2013-02-18 22:50:00,29.5,10.8,29.36,SE,127,8.7,8.7,45,0.00,,---,0.00,VWS V14.00,2013-02-19 03:50:00,
2013-02-18 22:52:00,29.3,10.6,29.36,SE,127,8.1,9.4,45,0.00,,---,0.00,VWS V14.00,2013-02-19 03:52:00,
2013-02-18 22:54:00,29.3,10.6,29.36,SE,127,6.0,7.4,45,0.00,,---,0.00,VWS V14.00,2013-02-19 03:54:00,
2013-02-18 22:55:00,29.3,10.6,29.36,SE,127,6.0,8.1,45,0.00,,---,0.00,VWS V14.00,2013-02-19 03:55:00,
2013-02-18 22:58:00,29.3,11.1,29.36,SE,127,5.4,6.0,46,0.00,,---,0.00,VWS V14.00,2013-02-19 03:58:00,
2013-02-18 22:59:00,29.3,11.1,29.36,SE,127,6.0,6.0,46,0.00,,---,0.00,VWS V14.00,2013-02-19 03:59:00,
2013-02-18 23:00:00,29.3,11.1,29.36,SE,127,6.0,6.0,46,0.00,,---,0.00,VWS V14.00,2013-02-19 04:00:00,
2013-02-18 23:03:00,29.1,10.9,29.36,SE,127,4.7,6.0,46,0.00,,---,0.00,VWS V14.00,2013-02-19 04:03:00,
2013-02-18 23:04:00,29.1,11.4,29.36,SE,127,5.4,5.4,47,0.00,,---,0.00,VWS V14.00,2013-02-19 04:04:00,
2013-02-18 23:05:00,29.1,11.4,29.36,SE,127,4.0,6.0,47,0.00,,---,0.00,VWS V14.00,2013-02-19 04:05:00,
2013-02-18 23:08:00,29.1,11.4,29.36,SE,127,6.0,6.0,47,0.00,,---,0.00,VWS V14.00,2013-02-19 04:08:00,
2013-02-18 23:09:00,29.1,11.4,29.36,SE,127,5.4,5.4,47,0.00,,---,0.00,VWS V14.00,2013-02-19 04:09:00,
2013-02-18 23:10:00,28.9,11.2,29.36,SE,127,5.4,7.4,47,0.00,,---,0.00,VWS V14.00,2013-02-19 04:10:00,
2013-02-18 23:13:00,28.9,11.2,29.36,SE,127,4.0,6.0,47,0.00,,---,0.00,VWS V14.00,2013-02-19 04:13:00,
2013-02-18 23:14:00,28.9,11.2,29.36,SE,127,5.4,5.4,47,0.00,,---,0.00,VWS V14.00,2013-02-19 04:14:00,
2013-02-18 23:15:00,28.9,11.2,29.36,SE,127,7.4,7.4,47,0.00,,---,0.00,VWS V14.00,2013-02-19 04:15:00,
2013-02-18 23:18:00,28.9,11.2,29.36,SE,127,7.4,8.1,47,0.00,,---,0.00,VWS V14.00,2013-02-19 04:18:00,
2013-02-18 23:19:00,28.9,11.2,29.36,SE,127,5.4,5.4,47,0.00,,---,0.00,VWS V14.00,2013-02-19 04:19:00,
2013-02-18 23:20:00,28.9,11.2,29.36,SE,127,6.0,8.1,47,0.00,,---,0.00,VWS V14.00,2013-02-19 04:20:00,
2013-02-18 23:23:00,28.8,11.1,29.36,SE,127,9.4,9.4,47,0.00,,---,0.00,VWS V14.00,2013-02-19 04:23:00,
2013-02-18 23:25:00,28.8,11.1,29.36,SE,126,8.7,8.7,47,0.00,,---,0.00,VWS V14.00,2013-02-19 04:25:00,
2013-02-18 23:26:00,28.8,11.1,29.36,SE,126,5.4,8.7,47,0.00,,---,0.00,VWS V14.00,2013-02-19 04:26:00,
2013-02-18 23:28:00,28.8,10.6,29.36,SE,126,7.4,7.4,46,0.00,,---,0.00,VWS V14.00,2013-02-19 04:28:00,
2013-02-18 23:30:00,28.8,10.6,29.36,SE,126,5.4,5.4,46,0.00,,---,0.00,VWS V14.00,2013-02-19 04:30:00,
2013-02-18 23:31:00,28.8,10.6,29.36,SE,126,8.1,8.1,46,0.00,,---,0.00,VWS V14.00,2013-02-19 04:31:00,
2013-02-18 23:33:00,28.6,10.4,29.36,SE,126,8.1,8.1,46,0.00,,---,0.00,VWS V14.00,2013-02-19 04:33:00,
2013-02-18 23:35:00,28.6,9.9,29.36,SE,126,6.7,7.4,45,0.00,,---,0.00,VWS V14.00,2013-02-19 04:35:00,
2013-02-18 23:36:00,28.6,9.9,29.36,SE,126,6.0,7.4,45,0.00,,---,0.00,VWS V14.00,2013-02-19 04:36:00,
2013-02-18 23:38:00,28.4,9.8,29.36,SE,126,4.0,4.7,45,0.00,,---,0.00,VWS V14.00,2013-02-19 04:38:00,
2013-02-18 23:40:00,28.4,9.8,29.36,SE,126,5.4,5.4,45,0.00,,---,0.00,VWS V14.00,2013-02-19 04:40:00,
2013-02-18 23:41:00,28.4,9.8,29.36,SE,126,5.4,5.4,45,0.00,,---,0.00,VWS V14.00,2013-02-19 04:41:00,
2013-02-18 23:43:00,28.2,9.6,29.36,SE,126,6.0,8.7,45,0.00,,---,0.00,VWS V14.00,2013-02-19 04:43:00,
2013-02-18 23:45:00,28.2,9.1,29.36,SE,126,9.4,9.4,44,0.00,,---,0.00,VWS V14.00,2013-02-19 04:45:00,
2013-02-18 23:46:00,28.2,9.1,29.36,SE,126,8.7,9.4,44,0.00,,---,0.00,VWS V14.00,2013-02-19 04:46:00,
2013-02-18 23:49:00,28.0,8.4,29.36,SE,126,11.4,11.4,43,0.00,,---,0.00,VWS V14.00,2013-02-19 04:49:00,
2013-02-18 23:50:00,27.9,8.3,29.36,SE,126,7.4,8.7,43,0.00,,---,0.00,VWS V14.00,2013-02-19 04:50:00,
2013-02-18 23:51:00,27.9,8.3,29.33,SE,126,8.1,8.1,43,0.00,,---,0.00,VWS V14.00,2013-02-19 04:51:00,
2013-02-18 23:54:00,27.9,8.3,29.33,SE,126,8.1,12.1,43,0.00,,---,0.00,VWS V14.00,2013-02-19 04:54:00,
2013-02-18 23:55:00,27.9,8.3,29.33,SE,126,6.0,8.7,43,0.00,,---,0.00,VWS V14.00,2013-02-19 04:55:00,
2013-02-18 23:56:00,27.9,8.3,29.33,SE,126,8.7,12.1,43,0.00,,---,0.00,VWS V14.00,2013-02-19 04:56:00,
2013-02-18 23:59:00,27.9,8.3,29.33,SE,126,7.4,7.4,43,0.00,,---,0.00,VWS V14.00,2013-02-19 04:59:00,